Observation data for Adrian on 09/16/2020      Previous  Date  Next       Current Mesonet Observations  Soil Data  Daily Summary Page  Observations in Plain Language
KAD1 160500Z 17013KT 17/09 A3017 RMK A01 T01680092  RH  061%=      5-min Rain = 0
KAD1 160501Z 18012KT 17/09 A3017 RMK A01 T01690093  RH  061%=      5-min Rain = 0
KAD1 160502Z 18012KT 17/09 A3017 RMK A01 T01700094  RH  061%=      5-min Rain = 0
KAD1 160503Z 18010KT 17/09 A3017 RMK A01 T01700094  RH  061%=      5-min Rain = 0
KAD1 160504Z 18010KT 17/09 A3017 RMK A01 T01700094  RH  061%=      5-min Rain = 0
KAD1 160505Z 18011KT 17/09 A3017 RMK A01 T01700094  RH  061%=      5-min Rain = 0
KAD1 160506Z 18012KT 17/10 A3017 RMK A01 T01690095  RH  062%=      5-min Rain = 0
KAD1 160507Z 18013KT 17/10 A3017 RMK A01 T01690096  RH  062%=      5-min Rain = 0
KAD1 160508Z 18011KT 17/10 A3017 RMK A01 T01690097  RH  062%=      5-min Rain = 0
KAD1 160509Z 18010KT 17/10 A3017 RMK A01 T01700097  RH  062%=      5-min Rain = 0
KAD1 160510Z 18011KT 17/10 A3017 RMK A01 T01700098  RH  062%=      5-min Rain = 0
KAD1 160511Z 18011KT 17/10 A3017 RMK A01 T01700100  RH  063%=      5-min Rain = 0
KAD1 160512Z 18012KT 17/10 A3017 RMK A01 T01710101  RH  063%=      5-min Rain = 0
KAD1 160513Z 18011KT 17/10 A3017 RMK A01 T01710101  RH  064%=      5-min Rain = 0
KAD1 160514Z 18011KT 17/10 A3017 RMK A01 T01710101  RH  064%=      5-min Rain = 0
KAD1 160515Z 18011KT 17/10 A3017 RMK A01 T01710102  RH  064%=      5-min Rain = 0
KAD1 160516Z 18011KT 17/10 A3017 RMK A01 T01710102  RH  064%=      5-min Rain = 0
KAD1 160517Z 18012KT 17/10 A3017 RMK A01 T01710102  RH  064%=      5-min Rain = 0
KAD1 160518Z 18011KT 17/10 A3017 RMK A01 T01690102  RH  064%=      5-min Rain = 0
KAD1 160519Z 18011KT 17/10 A3017 RMK A01 T01680102  RH  065%=      5-min Rain = 0
KAD1 160520Z 18011KT 17/10 A3017 RMK A01 T01670102  RH  065%=      5-min Rain = 0
KAD1 160521Z 18012KT 17/10 A3017 RMK A01 T01670103  RH  066%=      5-min Rain = 0
KAD1 160522Z 18012KT 17/10 A3017 RMK A01 T01670103  RH  066%=      5-min Rain = 0
KAD1 160523Z 18012KT 17/10 A3017 RMK A01 T01680104  RH  066%=      5-min Rain = 0
KAD1 160524Z 18011KT 17/10 A3017 RMK A01 T01680104  RH  066%=      5-min Rain = 0
KAD1 160525Z 18011KT 17/11 A3017 RMK A01 T01690105  RH  066%=      5-min Rain = 0
KAD1 160526Z 18011KT 17/11 A3017 RMK A01 T01690105  RH  066%=      5-min Rain = 0
KAD1 160527Z 18012KT 17/11 A3017 RMK A01 T01690106  RH  066%=      5-min Rain = 0
KAD1 160528Z 18012KT 17/11 A3016 RMK A01 T01690106  RH  066%=      5-min Rain = 0
KAD1 160529Z 18011KT 17/11 A3016 RMK A01 T01690106  RH  067%=      5-min Rain = 0
KAD1 160530Z 18011KT 17/11 A3016 RMK A01 T01680106  RH  067%=      5-min Rain = 0
KAD1 160531Z 18011KT 17/11 A3016 RMK A01 T01680107  RH  067%=      5-min Rain = 0
KAD1 160532Z 18011KT 17/11 A3016 RMK A01 T01680107  RH  067%=      5-min Rain = 0
KAD1 160533Z 18011KT 17/11 A3017 RMK A01 T01680107  RH  067%=      5-min Rain = 0
KAD1 160534Z 18011KT 17/11 A3017 RMK A01 T01680107  RH  067%=      5-min Rain = 0
KAD1 160535Z 18011KT 17/11 A3017 RMK A01 T01670107  RH  067%=      5-min Rain = 0
KAD1 160536Z 18011KT 17/11 A3017 RMK A01 T01670107  RH  067%=      5-min Rain = 0
KAD1 160537Z 18011KT 17/11 A3017 RMK A01 T01670107  RH  068%=      5-min Rain = 0
KAD1 160538Z 18011KT 17/11 A3017 RMK A01 T01670107  RH  068%=      5-min Rain = 0
KAD1 160539Z 18011KT 17/11 A3017 RMK A01 T01670108  RH  068%=      5-min Rain = 0
KAD1 160540Z 18011KT 17/11 A3017 RMK A01 T01660107  RH  068%=      5-min Rain = 0
KAD1 160541Z 18011KT 17/11 A3017 RMK A01 T01660108  RH  068%=      5-min Rain = 0
KAD1 160542Z 18011KT 17/11 A3017 RMK A01 T01660108  RH  069%=      5-min Rain = 0
KAD1 160543Z 18011KT 17/11 A3017 RMK A01 T01650108  RH  069%=      5-min Rain = 0
KAD1 160544Z 18011KT 16/11 A3017 RMK A01 T01640108  RH  069%=      5-min Rain = 0
KAD1 160545Z 18012KT 16/11 A3017 RMK A01 T01640108  RH  069%=      5-min Rain = 0
KAD1 160546Z 18012KT 16/11 A3017 RMK A01 T01630108  RH  070%=      5-min Rain = 0
KAD1 160547Z 18012KT 16/11 A3017 RMK A01 T01630108  RH  070%=      5-min Rain = 0
KAD1 160548Z 18011KT 16/11 A3017 RMK A01 T01620108  RH  070%=      5-min Rain = 0
KAD1 160549Z 18011KT 16/11 A3017 RMK A01 T01620108  RH  070%=      5-min Rain = 0
KAD1 160550Z 18011KT 16/11 A3016 RMK A01 T01620109  RH  071%=      5-min Rain = 0
KAD1 160551Z 18011KT 16/11 A3016 RMK A01 T01620109  RH  070%=      5-min Rain = 0
KAD1 160552Z 18011KT 16/11 A3016 RMK A01 T01610108  RH  071%=      5-min Rain = 0
KAD1 160553Z 18011KT 16/11 A3016 RMK A01 T01610108  RH  071%=      5-min Rain = 0
KAD1 160554Z 18011KT 16/11 A3016 RMK A01 T01610109  RH  071%=      5-min Rain = 0
KAD1 160555Z 18011KT 16/11 A3016 RMK A01 T01600108  RH  071%=      5-min Rain = 0
KAD1 160556Z 18012KT 16/11 A3016 RMK A01 T01600109  RH  071%=      5-min Rain = 0
KAD1 160557Z 18011KT 16/11 A3016 RMK A01 T01600108  RH  071%=      5-min Rain = 0
KAD1 160558Z 18011KT 16/11 A3016 RMK A01 T01610109  RH  071%=      5-min Rain = 0
KAD1 160559Z 18012KT 16/11 A3016 RMK A01 T01610109  RH  071%=      5-min Rain = 0
KAD1 160600Z 18011KT 16/11 A3016 RMK A01 T01620109  RH  071%=      5-min Rain = 0
KAD1 160601Z 18011KT 16/11 A3016 RMK A01 T01630109  RH  071%=      5-min Rain = 0
KAD1 160602Z 18011KT 16/11 A3016 RMK A01 T01640110  RH  070%=      5-min Rain = 0
KAD1 160603Z 17011KT 16/11 A3016 RMK A01 T01640110  RH  070%=      5-min Rain = 0
KAD1 160604Z 18010KT 16/11 A3016 RMK A01 T01630110  RH  070%=      5-min Rain = 0
KAD1 160605Z 18010KT 16/11 A3016 RMK A01 T01640110  RH  071%=      5-min Rain = 0
KAD1 160606Z 18010KT 16/11 A3016 RMK A01 T01630110  RH  071%=      5-min Rain = 0
KAD1 160607Z 18010KT 16/11 A3016 RMK A01 T01620110  RH  071%=      5-min Rain = 0
KAD1 160608Z 18010KT 16/11 A3016 RMK A01 T01620110  RH  071%=      5-min Rain = 0
KAD1 160609Z 18010KT 16/11 A3016 RMK A01 T01610109  RH  071%=      5-min Rain = 0
KAD1 160610Z 18010KT 16/11 A3016 RMK A01 T01610109  RH  071%=      5-min Rain = 0
KAD1 160611Z 17010KT 16/11 A3017 RMK A01 T01610109  RH  072%=      5-min Rain = 0
KAD1 160612Z 17010KT 16/11 A3017 RMK A01 T01600109  RH  072%=      5-min Rain = 0
KAD1 160613Z 17010KT 16/11 A3017 RMK A01 T01590109  RH  072%=      5-min Rain = 0
KAD1 160614Z 17010KT 16/11 A3017 RMK A01 T01580108  RH  073%=      5-min Rain = 0
KAD1 160615Z 17010KT 16/11 A3017 RMK A01 T01560108  RH  073%=      5-min Rain = 0
KAD1 160616Z 17010KT 16/11 A3017 RMK A01 T01550107  RH  073%=      5-min Rain = 0
KAD1 160617Z 17010KT 15/11 A3017 RMK A01 T01540107  RH  073%=      5-min Rain = 0
KAD1 160618Z 17010KT 15/11 A3016 RMK A01 T01530107  RH  074%=      5-min Rain = 0
KAD1 160619Z 17010KT 15/11 A3017 RMK A01 T01520107  RH  074%=      5-min Rain = 0
KAD1 160620Z 17010KT 15/11 A3017 RMK A01 T01520107  RH  075%=      5-min Rain = 0
KAD1 160621Z 17010KT 15/11 A3017 RMK A01 T01510107  RH  075%=      5-min Rain = 0
KAD1 160622Z 17009KT 15/11 A3017 RMK A01 T01500107  RH  075%=      5-min Rain = 0
KAD1 160623Z 17009KT 15/11 A3016 RMK A01 T01500107  RH  075%=      5-min Rain = 0
KAD1 160624Z 17010KT 15/11 A3016 RMK A01 T01490107  RH  076%=      5-min Rain = 0
KAD1 160625Z 17010KT 15/11 A3016 RMK A01 T01490107  RH  076%=      5-min Rain = 0
KAD1 160626Z 17010KT 15/11 A3016 RMK A01 T01490107  RH  076%=      5-min Rain = 0
KAD1 160627Z 17011KT 15/11 A3016 RMK A01 T01490108  RH  076%=      5-min Rain = 0
KAD1 160628Z 17011KT 15/11 A3016 RMK A01 T01500108  RH  076%=      5-min Rain = 0
KAD1 160629Z 17011KT 15/11 A3016 RMK A01 T01500108  RH  076%=      5-min Rain = 0
KAD1 160630Z 17011KT 15/11 A3016 RMK A01 T01510108  RH  076%=      5-min Rain = 0
KAD1 160631Z 17011KT 15/11 A3016 RMK A01 T01510108  RH  076%=      5-min Rain = 0
KAD1 160632Z 17011KT 15/11 A3016 RMK A01 T01510108  RH  076%=      5-min Rain = 0
KAD1 160633Z 17011KT 15/11 A3016 RMK A01 T01510108  RH  075%=      5-min Rain = 0
KAD1 160634Z 17011KT 15/11 A3016 RMK A01 T01520108  RH  075%=      5-min Rain = 0
KAD1 160635Z 17011KT 15/11 A3016 RMK A01 T01510108  RH  075%=      5-min Rain = 0
KAD1 160636Z 17011KT 15/11 A3016 RMK A01 T01510108  RH  076%=      5-min Rain = 0
KAD1 160637Z 17011KT 15/11 A3016 RMK A01 T01510108  RH  076%=      5-min Rain = 0
KAD1 160638Z 17011KT 15/11 A3016 RMK A01 T01510108  RH  076%=      5-min Rain = 0
KAD1 160639Z 17011KT 15/11 A3016 RMK A01 T01500108  RH  076%=      5-min Rain = 0
KAD1 160640Z 17011KT 15/11 A3016 RMK A01 T01500108  RH  076%=      5-min Rain = 0
KAD1 160641Z 17011KT 15/11 A3016 RMK A01 T01500108  RH  076%=      5-min Rain = 0
KAD1 160642Z 17011KT 15/11 A3016 RMK A01 T01500108  RH  076%=      5-min Rain = 0
KAD1 160643Z 17011KT 15/11 A3016 RMK A01 T01500108  RH  076%=      5-min Rain = 0
KAD1 160644Z 17011KT 15/11 A3016 RMK A01 T01500108  RH  076%=      5-min Rain = 0
KAD1 160645Z 17012KT 15/11 A3016 RMK A01 T01500108  RH  076%=      5-min Rain = 0
KAD1 160646Z 17011KT 15/11 A3016 RMK A01 T01500108  RH  076%=      5-min Rain = 0
KAD1 160647Z 17011KT 15/11 A3016 RMK A01 T01500109  RH  076%=      5-min Rain = 0
KAD1 160648Z 17011KT 15/11 A3016 RMK A01 T01500108  RH  076%=      5-min Rain = 0
KAD1 160649Z 17011KT 15/11 A3016 RMK A01 T01500109  RH  076%=      5-min Rain = 0
KAD1 160650Z 17011KT 15/11 A3016 RMK A01 T01500109  RH  076%=      5-min Rain = 0
KAD1 160651Z 17011KT 15/11 A3016 RMK A01 T01510109  RH  076%=      5-min Rain = 0
KAD1 160652Z 17011KT 15/11 A3016 RMK A01 T01510109  RH  076%=      5-min Rain = 0
KAD1 160653Z 17011KT 15/11 A3016 RMK A01 T01510109  RH  076%=      5-min Rain = 0
KAD1 160654Z 17011KT 15/11 A3016 RMK A01 T01510109  RH  076%=      5-min Rain = 0
KAD1 160655Z 17011KT 15/11 A3016 RMK A01 T01520109  RH  076%=      5-min Rain = 0
KAD1 160656Z 17011KT 15/11 A3016 RMK A01 T01520109  RH  076%=      5-min Rain = 0
KAD1 160657Z 17011KT 15/11 A3016 RMK A01 T01510109  RH  076%=      5-min Rain = 0
KAD1 160658Z 17011KT 15/11 A3016 RMK A01 T01520109  RH  076%=      5-min Rain = 0
KAD1 160659Z 17012KT 15/11 A3016 RMK A01 T01510109  RH  076%=      5-min Rain = 0
KAD1 160700Z 17011KT 15/11 A3016 RMK A01 T01510109  RH  076%=      5-min Rain = 0
KAD1 160701Z 17012KT 15/11 A3016 RMK A01 T01510109  RH  076%=      5-min Rain = 0
KAD1 160702Z 17011KT 15/11 A3016 RMK A01 T01510109  RH  076%=      5-min Rain = 0
KAD1 160703Z 17011KT 15/11 A3016 RMK A01 T01510109  RH  076%=      5-min Rain = 0
KAD1 160704Z 17011KT 15/11 A3016 RMK A01 T01500109  RH  076%=      5-min Rain = 0
KAD1 160705Z 17011KT 15/11 A3016 RMK A01 T01500109  RH  076%=      5-min Rain = 0
KAD1 160706Z 17011KT 15/11 A3016 RMK A01 T01490109  RH  077%=      5-min Rain = 0
KAD1 160707Z 17011KT 15/11 A3016 RMK A01 T01490109  RH  077%=      5-min Rain = 0
KAD1 160708Z 17011KT 15/11 A3016 RMK A01 T01490109  RH  077%=      5-min Rain = 0
KAD1 160709Z 17011KT 15/11 A3016 RMK A01 T01490108  RH  076%=      5-min Rain = 0
KAD1 160710Z 17011KT 15/11 A3016 RMK A01 T01490108  RH  077%=      5-min Rain = 0
KAD1 160711Z 17011KT 15/11 A3016 RMK A01 T01490109  RH  077%=      5-min Rain = 0
KAD1 160712Z 17011KT 15/11 A3016 RMK A01 T01480108  RH  077%=      5-min Rain = 0
KAD1 160713Z 17011KT 15/11 A3016 RMK A01 T01470108  RH  077%=      5-min Rain = 0
KAD1 160714Z 17011KT 15/11 A3016 RMK A01 T01470108  RH  077%=      5-min Rain = 0
KAD1 160715Z 17011KT 15/11 A3016 RMK A01 T01470108  RH  077%=      5-min Rain = 0
KAD1 160716Z 18011KT 15/11 A3016 RMK A01 T01460108  RH  078%=      5-min Rain = 0
KAD1 160717Z 18011KT 15/11 A3016 RMK A01 T01460108  RH  078%=      5-min Rain = 0
KAD1 160718Z 18011KT 15/11 A3016 RMK A01 T01460108  RH  078%=      5-min Rain = 0
KAD1 160719Z 18011KT 15/11 A3016 RMK A01 T01460108  RH  078%=      5-min Rain = 0
KAD1 160720Z 18011KT 15/11 A3016 RMK A01 T01450107  RH  078%=      5-min Rain = 0
KAD1 160721Z 18011KT 15/11 A3016 RMK A01 T01460108  RH  078%=      5-min Rain = 0
KAD1 160722Z 18010KT 15/11 A3016 RMK A01 T01460107  RH  078%=      5-min Rain = 0
KAD1 160723Z 18010KT 15/11 A3016 RMK A01 T01450107  RH  078%=      5-min Rain = 0
KAD1 160724Z 18011KT 15/11 A3016 RMK A01 T01450107  RH  078%=      5-min Rain = 0
KAD1 160725Z 18011KT 14/11 A3016 RMK A01 T01440107  RH  078%=      5-min Rain = 0
KAD1 160726Z 17011KT 14/11 A3016 RMK A01 T01440107  RH  078%=      5-min Rain = 0
KAD1 160727Z 17010KT 14/11 A3016 RMK A01 T01440107  RH  079%=      5-min Rain = 0
KAD1 160728Z 17010KT 14/11 A3016 RMK A01 T01430107  RH  079%=      5-min Rain = 0
KAD1 160729Z 18010KT 14/11 A3016 RMK A01 T01430107  RH  079%=      5-min Rain = 0
KAD1 160730Z 18011KT 14/11 A3016 RMK A01 T01430107  RH  079%=      5-min Rain = 0
KAD1 160731Z 18010KT 14/11 A3016 RMK A01 T01430107  RH  079%=      5-min Rain = 0
KAD1 160732Z 18010KT 14/11 A3016 RMK A01 T01430107  RH  079%=      5-min Rain = 0
KAD1 160733Z 18011KT 14/11 A3016 RMK A01 T01430107  RH  079%=      5-min Rain = 0
KAD1 160734Z 18011KT 14/11 A3016 RMK A01 T01420107  RH  079%=      5-min Rain = 0
KAD1 160735Z 18010KT 14/11 A3016 RMK A01 T01430107  RH  079%=      5-min Rain = 0
KAD1 160736Z 18010KT 14/11 A3016 RMK A01 T01420107  RH  079%=      5-min Rain = 0
KAD1 160737Z 18011KT 14/11 A3016 RMK A01 T01420107  RH  079%=      5-min Rain = 0
KAD1 160738Z 18010KT 14/11 A3016 RMK A01 T01420107  RH  079%=      5-min Rain = 0
KAD1 160739Z 18011KT 14/11 A3016 RMK A01 T01420107  RH  079%=      5-min Rain = 0
KAD1 160740Z 18011KT 14/11 A3016 RMK A01 T01410107  RH  080%=      5-min Rain = 0
KAD1 160741Z 18011KT 14/11 A3016 RMK A01 T01410106  RH  080%=      5-min Rain = 0
KAD1 160742Z 18011KT 14/11 A3016 RMK A01 T01410107  RH  080%=      5-min Rain = 0
KAD1 160743Z 18010KT 14/11 A3016 RMK A01 T01400107  RH  080%=      5-min Rain = 0
KAD1 160744Z 18010KT 14/11 A3016 RMK A01 T01400106  RH  080%=      5-min Rain = 0
KAD1 160745Z 18010KT 14/11 A3016 RMK A01 T01400106  RH  080%=      5-min Rain = 0
KAD1 160746Z 18010KT 14/11 A3016 RMK A01 T01390106  RH  080%=      5-min Rain = 0
KAD1 160747Z 18010KT 14/11 A3016 RMK A01 T01400106  RH  080%=      5-min Rain = 0
KAD1 160748Z 18010KT 14/11 A3016 RMK A01 T01400106  RH  080%=      5-min Rain = 0
KAD1 160749Z 19010KT 14/11 A3016 RMK A01 T01400106  RH  080%=      5-min Rain = 0
KAD1 160750Z 19009KT 14/11 A3016 RMK A01 T01400106  RH  080%=      5-min Rain = 0
KAD1 160751Z 19010KT 14/11 A3016 RMK A01 T01400106  RH  080%=      5-min Rain = 0
KAD1 160752Z 19009KT 14/11 A3016 RMK A01 T01400106  RH  080%=      5-min Rain = 0
KAD1 160753Z 19010KT 14/11 A3016 RMK A01 T01400106  RH  080%=      5-min Rain = 0
KAD1 160754Z 19010KT 14/11 A3016 RMK A01 T01390106  RH  080%=      5-min Rain = 0
KAD1 160755Z 19010KT 14/11 A3016 RMK A01 T01390106  RH  080%=      5-min Rain = 0
KAD1 160756Z 19010KT 14/11 A3016 RMK A01 T01390106  RH  080%=      5-min Rain = 0
KAD1 160757Z 19010KT 14/11 A3016 RMK A01 T01390106  RH  080%=      5-min Rain = 0
KAD1 160758Z 19010KT 14/11 A3015 RMK A01 T01390105  RH  080%=      5-min Rain = 0
KAD1 160759Z 19010KT 14/11 A3015 RMK A01 T01390105  RH  080%=      5-min Rain = 0
KAD1 160800Z 20010KT 14/11 A3015 RMK A01 T01380105  RH  080%=      5-min Rain = 0
KAD1 160801Z 20010KT 14/11 A3015 RMK A01 T01380105  RH  081%=      5-min Rain = 0
KAD1 160802Z 20010KT 14/11 A3015 RMK A01 T01370105  RH  081%=      5-min Rain = 0
KAD1 160803Z 20010KT 14/11 A3015 RMK A01 T01370105  RH  081%=      5-min Rain = 0
KAD1 160804Z 20010KT 14/11 A3015 RMK A01 T01370105  RH  081%=      5-min Rain = 0
KAD1 160805Z 20010KT 14/11 A3015 RMK A01 T01370105  RH  081%=      5-min Rain = 0
KAD1 160806Z 20010KT 14/11 A3015 RMK A01 T01370105  RH  081%=      5-min Rain = 0
KAD1 160807Z 20011KT 14/10 A3015 RMK A01 T01370104  RH  081%=      5-min Rain = 0
KAD1 160808Z 20011KT 14/10 A3015 RMK A01 T01370104  RH  081%=      5-min Rain = 0
KAD1 160809Z 20010KT 14/10 A3015 RMK A01 T01370104  RH  081%=      5-min Rain = 0
KAD1 160810Z 20010KT 14/10 A3015 RMK A01 T01360104  RH  081%=      5-min Rain = 0
KAD1 160811Z 20009KT 14/10 A3015 RMK A01 T01360104  RH  081%=      5-min Rain = 0
KAD1 160812Z 20010KT 14/10 A3015 RMK A01 T01350103  RH  081%=      5-min Rain = 0
KAD1 160813Z 20010KT 14/10 A3015 RMK A01 T01350103  RH  081%=      5-min Rain = 0
KAD1 160814Z 20009KT 13/10 A3015 RMK A01 T01340103  RH  082%=      5-min Rain = 0
KAD1 160815Z 20009KT 13/10 A3015 RMK A01 T01330103  RH  082%=      5-min Rain = 0
KAD1 160816Z 20009KT 13/10 A3015 RMK A01 T01330103  RH  082%=      5-min Rain = 0
KAD1 160817Z 20008KT 13/10 A3015 RMK A01 T01330102  RH  082%=      5-min Rain = 0
KAD1 160818Z 20009KT 13/10 A3015 RMK A01 T01320102  RH  082%=      5-min Rain = 0
KAD1 160819Z 20008KT 13/10 A3015 RMK A01 T01300102  RH  083%=      5-min Rain = 0
KAD1 160820Z 20008KT 13/10 A3015 RMK A01 T01300102  RH  083%=      5-min Rain = 0
KAD1 160821Z 21008KT 13/10 A3015 RMK A01 T01290101  RH  083%=      5-min Rain = 0
KAD1 160822Z 20008KT 13/10 A3015 RMK A01 T01280101  RH  084%=      5-min Rain = 0
KAD1 160823Z 20009KT 13/10 A3015 RMK A01 T01280102  RH  084%=      5-min Rain = 0
KAD1 160824Z 21009KT 13/10 A3015 RMK A01 T01280102  RH  084%=      5-min Rain = 0
KAD1 160825Z 21009KT 13/10 A3015 RMK A01 T01290102  RH  084%=      5-min Rain = 0
KAD1 160826Z 21010KT 13/10 A3015 RMK A01 T01300102  RH  083%=      5-min Rain = 0
KAD1 160827Z 21010KT 13/10 A3015 RMK A01 T01300102  RH  083%=      5-min Rain = 0
KAD1 160828Z 21010KT 13/10 A3015 RMK A01 T01310102  RH  083%=      5-min Rain = 0
KAD1 160829Z 21010KT 13/10 A3015 RMK A01 T01310102  RH  083%=      5-min Rain = 0
KAD1 160830Z 21009KT 13/10 A3015 RMK A01 T01310101  RH  083%=      5-min Rain = 0
KAD1 160831Z 21009KT 13/10 A3015 RMK A01 T01300102  RH  083%=      5-min Rain = 0
KAD1 160832Z 21009KT 13/10 A3015 RMK A01 T01300101  RH  083%=      5-min Rain = 0
KAD1 160833Z 21009KT 13/10 A3015 RMK A01 T01300101  RH  083%=      5-min Rain = 0
KAD1 160834Z 21009KT 13/10 A3015 RMK A01 T01300101  RH  083%=      5-min Rain = 0
KAD1 160835Z 21010KT 13/10 A3015 RMK A01 T01290100  RH  082%=      5-min Rain = 0
KAD1 160836Z 21010KT 13/10 A3015 RMK A01 T01290100  RH  082%=      5-min Rain = 0
KAD1 160837Z 21010KT 13/10 A3015 RMK A01 T01290099  RH  082%=      5-min Rain = 0
KAD1 160838Z 21009KT 13/10 A3015 RMK A01 T01290099  RH  082%=      5-min Rain = 0
KAD1 160839Z 20009KT 13/10 A3015 RMK A01 T01290099  RH  082%=      5-min Rain = 0
KAD1 160840Z 21009KT 13/10 A3015 RMK A01 T01280098  RH  082%=      5-min Rain = 0
KAD1 160841Z 21009KT 13/10 A3015 RMK A01 T01270098  RH  083%=      5-min Rain = 0
KAD1 160842Z 21010KT 13/10 A3015 RMK A01 T01270099  RH  083%=      5-min Rain = 0
KAD1 160843Z 21009KT 13/10 A3015 RMK A01 T01270099  RH  083%=      5-min Rain = 0
KAD1 160844Z 21009KT 13/10 A3015 RMK A01 T01270099  RH  083%=      5-min Rain = 0
KAD1 160845Z 21009KT 13/10 A3015 RMK A01 T01280099  RH  082%=      5-min Rain = 0
KAD1 160846Z 21010KT 13/10 A3015 RMK A01 T01290098  RH  082%=      5-min Rain = 0
KAD1 160847Z 20010KT 13/10 A3015 RMK A01 T01290097  RH  081%=      5-min Rain = 0
KAD1 160848Z 20010KT 13/10 A3015 RMK A01 T01290097  RH  081%=      5-min Rain = 0
KAD1 160849Z 19010KT 13/10 A3015 RMK A01 T01280097  RH  081%=      5-min Rain = 0
KAD1 160850Z 19010KT 13/10 A3015 RMK A01 T01270098  RH  082%=      5-min Rain = 0
KAD1 160851Z 19010KT 13/10 A3015 RMK A01 T01260099  RH  083%=      5-min Rain = 0
KAD1 160852Z 19010KT 13/10 A3015 RMK A01 T01260100  RH  084%=      5-min Rain = 0
KAD1 160853Z 20010KT 13/10 A3015 RMK A01 T01270101  RH  084%=      5-min Rain = 0
KAD1 160854Z 20010KT 13/10 A3015 RMK A01 T01280101  RH  083%=      5-min Rain = 0
KAD1 160855Z 21010KT 13/10 A3015 RMK A01 T01290100  RH  082%=      5-min Rain = 0
KAD1 160856Z 21009KT 13/10 A3015 RMK A01 T01300099  RH  081%=      5-min Rain = 0
KAD1 160857Z 21010KT 13/10 A3015 RMK A01 T01300098  RH  081%=      5-min Rain = 0
KAD1 160858Z 21010KT 13/10 A3015 RMK A01 T01310097  RH  080%=      5-min Rain = 0
KAD1 160859Z 22009KT 13/10 A3015 RMK A01 T01320097  RH  079%=      5-min Rain = 0
KAD1 160900Z 22009KT 13/10 A3015 RMK A01 T01320096  RH  079%=      5-min Rain = 0
KAD1 160901Z 22009KT 13/10 A3015 RMK A01 T01320096  RH  079%=      5-min Rain = 0
KAD1 160902Z 22009KT 13/10 A3015 RMK A01 T01320095  RH  078%=      5-min Rain = 0
KAD1 160903Z 22009KT 13/10 A3015 RMK A01 T01330096  RH  078%=      5-min Rain = 0
KAD1 160904Z 22009KT 13/10 A3015 RMK A01 T01320095  RH  078%=      5-min Rain = 0
KAD1 160905Z 22009KT 13/10 A3015 RMK A01 T01320095  RH  078%=      5-min Rain = 0
KAD1 160906Z 22009KT 13/09 A3015 RMK A01 T01320094  RH  078%=      5-min Rain = 0
KAD1 160907Z 22009KT 13/09 A3015 RMK A01 T01330094  RH  077%=      5-min Rain = 0
KAD1 160908Z 23009KT 13/09 A3015 RMK A01 T01320094  RH  077%=      5-min Rain = 0
KAD1 160909Z 23009KT 13/09 A3014 RMK A01 T01320093  RH  077%=      5-min Rain = 0
KAD1 160910Z 23009KT 13/09 A3014 RMK A01 T01320093  RH  077%=      5-min Rain = 0
KAD1 160911Z 23009KT 13/09 A3014 RMK A01 T01320093  RH  077%=      5-min Rain = 0
KAD1 160912Z 23008KT 13/09 A3014 RMK A01 T01320092  RH  077%=      5-min Rain = 0
KAD1 160913Z 23009KT 13/09 A3014 RMK A01 T01330092  RH  076%=      5-min Rain = 0
KAD1 160914Z 23008KT 13/09 A3014 RMK A01 T01340092  RH  075%=      5-min Rain = 0
KAD1 160915Z 23008KT 14/09 A3014 RMK A01 T01350091  RH  075%=      5-min Rain = 0
KAD1 160916Z 23008KT 14/09 A3014 RMK A01 T01360091  RH  074%=      5-min Rain = 0
KAD1 160917Z 23008KT 14/09 A3014 RMK A01 T01370090  RH  074%=      5-min Rain = 0
KAD1 160918Z 24008KT 14/09 A3014 RMK A01 T01380090  RH  073%=      5-min Rain = 0
KAD1 160919Z 23008KT 14/09 A3014 RMK A01 T01380089  RH  072%=      5-min Rain = 0
KAD1 160920Z 23008KT 14/09 A3014 RMK A01 T01390088  RH  072%=      5-min Rain = 0
KAD1 160921Z 23008KT 14/09 A3014 RMK A01 T01390088  RH  071%=      5-min Rain = 0
KAD1 160922Z 23008KT 14/09 A3014 RMK A01 T01390088  RH  071%=      5-min Rain = 0
KAD1 160923Z 23008KT 14/09 A3014 RMK A01 T01390087  RH  071%=      5-min Rain = 0
KAD1 160924Z 24008KT 14/09 A3014 RMK A01 T01400086  RH  070%=      5-min Rain = 0
KAD1 160925Z 24008KT 14/09 A3014 RMK A01 T01410086  RH  069%=      5-min Rain = 0
KAD1 160926Z 24008KT 14/09 A3014 RMK A01 T01420085  RH  069%=      5-min Rain = 0
KAD1 160927Z 24008KT 14/09 A3014 RMK A01 T01430085  RH  068%=      5-min Rain = 0
KAD1 160928Z 24008KT 14/09 A3014 RMK A01 T01430085  RH  068%=      5-min Rain = 0
KAD1 160929Z 24008KT 15/08 A3014 RMK A01 T01450084  RH  067%=      5-min Rain = 0
KAD1 160930Z 24007KT 15/08 A3014 RMK A01 T01450084  RH  067%=      5-min Rain = 0
KAD1 160931Z 24007KT 15/08 A3014 RMK A01 T01460083  RH  066%=      5-min Rain = 0
KAD1 160932Z 24007KT 15/08 A3014 RMK A01 T01470083  RH  065%=      5-min Rain = 0
KAD1 160933Z 24007KT 15/08 A3014 RMK A01 T01490083  RH  065%=      5-min Rain = 0
KAD1 160934Z 24007KT 15/08 A3014 RMK A01 T01500083  RH  064%=      5-min Rain = 0
KAD1 160935Z 24007KT 15/08 A3014 RMK A01 T01500083  RH  064%=      5-min Rain = 0
KAD1 160936Z 24007KT 15/08 A3014 RMK A01 T01510083  RH  064%=      5-min Rain = 0
KAD1 160937Z 24007KT 15/08 A3014 RMK A01 T01520082  RH  063%=      5-min Rain = 0
KAD1 160938Z 24007KT 15/08 A3014 RMK A01 T01520082  RH  063%=      5-min Rain = 0
KAD1 160939Z 24007KT 15/08 A3014 RMK A01 T01530082  RH  062%=      5-min Rain = 0
KAD1 160940Z 24007KT 15/08 A3014 RMK A01 T01530081  RH  062%=      5-min Rain = 0
KAD1 160941Z 24008KT 15/08 A3014 RMK A01 T01540081  RH  062%=      5-min Rain = 0
KAD1 160942Z 24008KT 16/08 A3014 RMK A01 T01550082  RH  061%=      5-min Rain = 0
KAD1 160943Z 24008KT 16/08 A3014 RMK A01 T01560081  RH  061%=      5-min Rain = 0
KAD1 160944Z 24008KT 16/08 A3014 RMK A01 T01570081  RH  061%=      5-min Rain = 0
KAD1 160945Z 24007KT 16/08 A3014 RMK A01 T01570081  RH  061%=      5-min Rain = 0
KAD1 160946Z 24008KT 16/08 A3014 RMK A01 T01560081  RH  061%=      5-min Rain = 0
KAD1 160947Z 24008KT 16/08 A3014 RMK A01 T01560081  RH  061%=      5-min Rain = 0
KAD1 160948Z 24008KT 16/08 A3014 RMK A01 T01560081  RH  061%=      5-min Rain = 0
KAD1 160949Z 24008KT 16/08 A3014 RMK A01 T01560081  RH  061%=      5-min Rain = 0
KAD1 160950Z 24008KT 16/08 A3014 RMK A01 T01580081  RH  060%=      5-min Rain = 0
KAD1 160951Z 24009KT 16/08 A3014 RMK A01 T01580082  RH  060%=      5-min Rain = 0
KAD1 160952Z 24008KT 16/08 A3014 RMK A01 T01580082  RH  060%=      5-min Rain = 0
KAD1 160953Z 24008KT 16/08 A3014 RMK A01 T01590082  RH  060%=      5-min Rain = 0
KAD1 160954Z 24008KT 16/08 A3014 RMK A01 T01580082  RH  060%=      5-min Rain = 0
KAD1 160955Z 24008KT 16/08 A3014 RMK A01 T01580083  RH  061%=      5-min Rain = 0
KAD1 160956Z 24008KT 16/08 A3014 RMK A01 T01580083  RH  061%=      5-min Rain = 0
KAD1 160957Z 24009KT 16/08 A3014 RMK A01 T01580083  RH  061%=      5-min Rain = 0
KAD1 160958Z 24009KT 16/08 A3014 RMK A01 T01580083  RH  061%=      5-min Rain = 0
KAD1 160959Z 24008KT 16/08 A3014 RMK A01 T01580083  RH  061%=      5-min Rain = 0
KAD1 161000Z 24008KT 16/08 A3014 RMK A01 T01580084  RH  061%=      5-min Rain = 0
KAD1 161001Z 25008KT 16/09 A3014 RMK A01 T01570085  RH  062%=      5-min Rain = 0
KAD1 161002Z 25008KT 16/09 A3014 RMK A01 T01560085  RH  063%=      5-min Rain = 0
KAD1 161003Z 25008KT 16/09 A3014 RMK A01 T01550085  RH  063%=      5-min Rain = 0
KAD1 161004Z 25009KT 15/09 A3014 RMK A01 T01540085  RH  063%=      5-min Rain = 0
KAD1 161005Z 25009KT 15/09 A3014 RMK A01 T01540085  RH  063%=      5-min Rain = 0
KAD1 161006Z 25009KT 15/09 A3014 RMK A01 T01540085  RH  063%=      5-min Rain = 0
KAD1 161007Z 25009KT 15/09 A3014 RMK A01 T01540085  RH  063%=      5-min Rain = 0
KAD1 161008Z 25009KT 15/09 A3014 RMK A01 T01540085  RH  063%=      5-min Rain = 0
KAD1 161009Z 25009KT 15/09 A3014 RMK A01 T01540086  RH  064%=      5-min Rain = 0
KAD1 161010Z 25009KT 16/09 A3014 RMK A01 T01550086  RH  064%=      5-min Rain = 0
KAD1 161011Z 25009KT 16/09 A3014 RMK A01 T01550086  RH  064%=      5-min Rain = 0
KAD1 161012Z 25009KT 16/09 A3014 RMK A01 T01560087  RH  064%=      5-min Rain = 0
KAD1 161013Z 25009KT 16/09 A3014 RMK A01 T01560087  RH  064%=      5-min Rain = 0
KAD1 161014Z 25009KT 16/09 A3014 RMK A01 T01560087  RH  064%=      5-min Rain = 0
KAD1 161015Z 25009KT 16/09 A3014 RMK A01 T01550087  RH  064%=      5-min Rain = 0
KAD1 161016Z 25009KT 16/09 A3014 RMK A01 T01550088  RH  064%=      5-min Rain = 0
KAD1 161017Z 25010KT 15/09 A3013 RMK A01 T01540088  RH  065%=      5-min Rain = 0
KAD1 161018Z 25010KT 15/09 A3013 RMK A01 T01540088  RH  065%=      5-min Rain = 0
KAD1 161019Z 25010KT 15/09 A3013 RMK A01 T01540088  RH  065%=      5-min Rain = 0
KAD1 161020Z 25010KT 16/09 A3013 RMK A01 T01550088  RH  064%=      5-min Rain = 0
KAD1 161021Z 25010KT 16/09 A3013 RMK A01 T01560089  RH  064%=      5-min Rain = 0
KAD1 161022Z 25010KT 16/09 A3013 RMK A01 T01580090  RH  064%=      5-min Rain = 0
KAD1 161023Z 25010KT 16/09 A3013 RMK A01 T01590090  RH  064%=      5-min Rain = 0
KAD1 161024Z 25010KT 16/09 A3013 RMK A01 T01590090  RH  063%=      5-min Rain = 0
KAD1 161025Z 26010KT 16/09 A3013 RMK A01 T01600090  RH  063%=      5-min Rain = 0
KAD1 161026Z 26010KT 16/09 A3013 RMK A01 T01610090  RH  063%=      5-min Rain = 0
KAD1 161027Z 26010KT 16/09 A3013 RMK A01 T01620091  RH  063%=      5-min Rain = 0
KAD1 161028Z 26010KT 16/09 A3013 RMK A01 T01620091  RH  063%=      5-min Rain = 0
KAD1 161029Z 25011KT 16/09 A3013 RMK A01 T01630091  RH  062%=      5-min Rain = 0
KAD1 161030Z 26011KT 16/09 A3013 RMK A01 T01630091  RH  062%=      5-min Rain = 0
KAD1 161031Z 26011KT 16/09 A3013 RMK A01 T01640091  RH  062%=      5-min Rain = 0
KAD1 161032Z 26011KT 16/09 A3013 RMK A01 T01640091  RH  062%=      5-min Rain = 0
KAD1 161033Z 25011KT 17/09 A3013 RMK A01 T01650091  RH  061%=      5-min Rain = 0
KAD1 161034Z 25012KT 17/09 A3013 RMK A01 T01660091  RH  061%=      5-min Rain = 0
KAD1 161035Z 25012KT 17/09 A3013 RMK A01 T01660092  RH  061%=      5-min Rain = 0
KAD1 161036Z 25012KT 17/09 A3013 RMK A01 T01670092  RH  061%=      5-min Rain = 0
KAD1 161037Z 25012KT 17/09 A3013 RMK A01 T01680092  RH  061%=      5-min Rain = 0
KAD1 161038Z 25012KT 17/09 A3013 RMK A01 T01670092  RH  061%=      5-min Rain = 0
KAD1 161039Z 25012KT 17/09 A3013 RMK A01 T01680093  RH  061%=      5-min Rain = 0
KAD1 161040Z 25012KT 17/09 A3013 RMK A01 T01680093  RH  061%=      5-min Rain = 0
KAD1 161041Z 25012KT 17/09 A3013 RMK A01 T01680093  RH  061%=      5-min Rain = 0
KAD1 161042Z 25012KT 17/09 A3013 RMK A01 T01680093  RH  061%=      5-min Rain = 0
KAD1 161043Z 25013KT 17/09 A3013 RMK A01 T01680094  RH  062%=      5-min Rain = 0
KAD1 161044Z 25012KT 17/09 A3013 RMK A01 T01680094  RH  061%=      5-min Rain = 0
KAD1 161045Z 25012KT 17/09 A3013 RMK A01 T01690094  RH  061%=      5-min Rain = 0
KAD1 161046Z 25012KT 17/09 A3013 RMK A01 T01700094  RH  061%=      5-min Rain = 0
KAD1 161047Z 25012KT 17/09 A3013 RMK A01 T01700094  RH  061%=      5-min Rain = 0
KAD1 161048Z 25012KT 17/09 A3013 RMK A01 T01700094  RH  061%=      5-min Rain = 0
KAD1 161049Z 25013KT 17/09 A3013 RMK A01 T01700094  RH  061%=      5-min Rain = 0
KAD1 161050Z 25012KT 17/09 A3013 RMK A01 T01700094  RH  061%=      5-min Rain = 0
KAD1 161051Z 25013KT 17/10 A3013 RMK A01 T01700095  RH  061%=      5-min Rain = 0
KAD1 161052Z 25013KT 17/10 A3013 RMK A01 T01690095  RH  062%=      5-min Rain = 0
KAD1 161053Z 25013KT 17/10 A3013 RMK A01 T01680095  RH  062%=      5-min Rain = 0
KAD1 161054Z 25013KT 17/10 A3013 RMK A01 T01680095  RH  062%=      5-min Rain = 0
KAD1 161055Z 25013KT 17/10 A3013 RMK A01 T01680095  RH  062%=      5-min Rain = 0
KAD1 161056Z 25013KT 17/10 A3013 RMK A01 T01680095  RH  062%=      5-min Rain = 0
KAD1 161057Z 25012KT 17/10 A3014 RMK A01 T01680095  RH  062%=      5-min Rain = 0
KAD1 161058Z 25013KT 17/10 A3014 RMK A01 T01680095  RH  062%=      5-min Rain = 0
KAD1 161059Z 25013KT 17/10 A3014 RMK A01 T01680095  RH  062%=      5-min Rain = 0
KAD1 161100Z 25012KT 17/10 A3014 RMK A01 T01680095  RH  062%=      5-min Rain = 0
KAD1 161101Z 25012KT 17/10 A3014 RMK A01 T01670095  RH  063%=      5-min Rain = 0
KAD1 161102Z 25012KT 17/10 A3014 RMK A01 T01660095  RH  063%=      5-min Rain = 0
KAD1 161103Z 25012KT 17/10 A3014 RMK A01 T01660096  RH  063%=      5-min Rain = 0
KAD1 161104Z 25013KT 17/10 A3014 RMK A01 T01660095  RH  063%=      5-min Rain = 0
KAD1 161105Z 25013KT 17/10 A3014 RMK A01 T01660095  RH  063%=      5-min Rain = 0
KAD1 161106Z 25013KT 17/10 A3014 RMK A01 T01650095  RH  063%=      5-min Rain = 0
KAD1 161107Z 25013KT 17/10 A3014 RMK A01 T01650095  RH  063%=      5-min Rain = 0
KAD1 161108Z 25013KT 17/10 A3014 RMK A01 T01650095  RH  063%=      5-min Rain = 0
KAD1 161109Z 25013KT 16/10 A3014 RMK A01 T01640096  RH  064%=      5-min Rain = 0
KAD1 161110Z 25013KT 16/10 A3014 RMK A01 T01640095  RH  064%=      5-min Rain = 0
KAD1 161111Z 25013KT 16/10 A3014 RMK A01 T01640095  RH  064%=      5-min Rain = 0
KAD1 161112Z 25013KT 16/10 A3014 RMK A01 T01640095  RH  064%=      5-min Rain = 0
KAD1 161113Z 25013KT 16/10 A3014 RMK A01 T01640095  RH  064%=      5-min Rain = 0
KAD1 161114Z 25014KT 16/10 A3014 RMK A01 T01640095  RH  064%=      5-min Rain = 0
KAD1 161115Z 25013KT 16/10 A3014 RMK A01 T01640095  RH  064%=      5-min Rain = 0
KAD1 161116Z 25013KT 16/10 A3014 RMK A01 T01630095  RH  064%=      5-min Rain = 0
KAD1 161117Z 25013KT 16/10 A3014 RMK A01 T01630095  RH  064%=      5-min Rain = 0
KAD1 161118Z 25013KT 16/10 A3014 RMK A01 T01630095  RH  064%=      5-min Rain = 0
KAD1 161119Z 25014KT 16/10 A3014 RMK A01 T01620095  RH  064%=      5-min Rain = 0
KAD1 161120Z 25013KT 16/10 A3014 RMK A01 T01620095  RH  064%=      5-min Rain = 0
KAD1 161121Z 25013KT 16/10 A3014 RMK A01 T01610095  RH  065%=      5-min Rain = 0
KAD1 161122Z 26013KT 16/10 A3014 RMK A01 T01610095  RH  065%=      5-min Rain = 0
KAD1 161123Z 26013KT 16/10 A3014 RMK A01 T01610095  RH  065%=      5-min Rain = 0
KAD1 161124Z 25013KT 16/10 A3014 RMK A01 T01610095  RH  065%=      5-min Rain = 0
KAD1 161125Z 25013KT 16/10 A3014 RMK A01 T01610095  RH  065%=      5-min Rain = 0
KAD1 161126Z 25013KT 16/10 A3014 RMK A01 T01600095  RH  065%=      5-min Rain = 0
KAD1 161127Z 25013KT 16/10 A3014 RMK A01 T01600095  RH  065%=      5-min Rain = 0
KAD1 161128Z 26013KT 16/10 A3014 RMK A01 T01600095  RH  065%=      5-min Rain = 0
KAD1 161129Z 26013KT 16/10 A3014 RMK A01 T01600095  RH  065%=      5-min Rain = 0
KAD1 161130Z 26013KT 16/10 A3014 RMK A01 T01590095  RH  066%=      5-min Rain = 0
KAD1 161131Z 26013KT 16/10 A3014 RMK A01 T01590095  RH  066%=      5-min Rain = 0
KAD1 161132Z 26013KT 16/10 A3014 RMK A01 T01580095  RH  066%=      5-min Rain = 0
KAD1 161133Z 26013KT 16/10 A3014 RMK A01 T01580096  RH  066%=      5-min Rain = 0
KAD1 161134Z 26013KT 16/10 A3014 RMK A01 T01580096  RH  066%=      5-min Rain = 0
KAD1 161135Z 26013KT 16/10 A3014 RMK A01 T01580096  RH  067%=      5-min Rain = 0
KAD1 161136Z 26013KT 16/10 A3014 RMK A01 T01580096  RH  067%=      5-min Rain = 0
KAD1 161137Z 26013KT 16/10 A3014 RMK A01 T01580096  RH  067%=      5-min Rain = 0
KAD1 161138Z 26013KT 16/10 A3014 RMK A01 T01570096  RH  067%=      5-min Rain = 0
KAD1 161139Z 26012KT 16/10 A3014 RMK A01 T01570096  RH  067%=      5-min Rain = 0
KAD1 161140Z 26012KT 16/10 A3014 RMK A01 T01570096  RH  067%=      5-min Rain = 0
KAD1 161141Z 26012KT 16/10 A3014 RMK A01 T01580096  RH  067%=      5-min Rain = 0
KAD1 161142Z 26012KT 16/10 A3014 RMK A01 T01570096  RH  067%=      5-min Rain = 0
KAD1 161143Z 26011KT 16/10 A3014 RMK A01 T01570096  RH  067%=      5-min Rain = 0
KAD1 161144Z 26011KT 16/10 A3014 RMK A01 T01570096  RH  067%=      5-min Rain = 0
KAD1 161145Z 26011KT 16/10 A3014 RMK A01 T01570096  RH  067%=      5-min Rain = 0
KAD1 161146Z 26011KT 16/10 A3014 RMK A01 T01570096  RH  067%=      5-min Rain = 0
KAD1 161147Z 26011KT 16/10 A3014 RMK A01 T01570096  RH  067%=      5-min Rain = 0
KAD1 161148Z 26011KT 16/10 A3014 RMK A01 T01570096  RH  067%=      5-min Rain = 0
KAD1 161149Z 26011KT 16/10 A3014 RMK A01 T01570096  RH  067%=      5-min Rain = 0
KAD1 161150Z 26011KT 16/10 A3014 RMK A01 T01570096  RH  067%=      5-min Rain = 0
KAD1 161151Z 26011KT 16/10 A3014 RMK A01 T01570096  RH  067%=      5-min Rain = 0
KAD1 161152Z 26011KT 16/10 A3014 RMK A01 T01560096  RH  067%=      5-min Rain = 0
KAD1 161153Z 26011KT 16/10 A3014 RMK A01 T01570096  RH  067%=      5-min Rain = 0
KAD1 161154Z 26011KT 16/10 A3014 RMK A01 T01560096  RH  067%=      5-min Rain = 0
KAD1 161155Z 26011KT 16/10 A3014 RMK A01 T01560096  RH  068%=      5-min Rain = 0
KAD1 161156Z 26011KT 16/10 A3014 RMK A01 T01560096  RH  068%=      5-min Rain = 0
KAD1 161157Z 26011KT 16/10 A3014 RMK A01 T01560096  RH  068%=      5-min Rain = 0
KAD1 161158Z 26011KT 16/10 A3014 RMK A01 T01550096  RH  068%=      5-min Rain = 0
KAD1 161159Z 26011KT 16/10 A3014 RMK A01 T01550096  RH  068%=      5-min Rain = 0
KAD1 161200Z 26011KT 16/10 A3014 RMK A01 T01550097  RH  068%=      5-min Rain = 0
KAD1 161201Z 26011KT 15/10 A3014 RMK A01 T01540096  RH  068%=      5-min Rain = 0
KAD1 161202Z 26011KT 15/10 A3014 RMK A01 T01540096  RH  068%=      5-min Rain = 0
KAD1 161203Z 26011KT 15/10 A3014 RMK A01 T01540097  RH  069%=      5-min Rain = 0
KAD1 161204Z 26011KT 15/10 A3014 RMK A01 T01540097  RH  069%=      5-min Rain = 0
KAD1 161205Z 26011KT 15/10 A3014 RMK A01 T01540096  RH  069%=      5-min Rain = 0
KAD1 161206Z 26011KT 15/10 A3014 RMK A01 T01540097  RH  069%=      5-min Rain = 0
KAD1 161207Z 26011KT 15/10 A3014 RMK A01 T01540097  RH  068%=      5-min Rain = 0
KAD1 161208Z 26010KT 16/10 A3014 RMK A01 T01550097  RH  068%=      5-min Rain = 0
KAD1 161209Z 26010KT 16/10 A3014 RMK A01 T01550096  RH  068%=      5-min Rain = 0
KAD1 161210Z 26010KT 16/10 A3014 RMK A01 T01550097  RH  068%=      5-min Rain = 0
KAD1 161211Z 26010KT 15/10 A3014 RMK A01 T01540097  RH  069%=      5-min Rain = 0
KAD1 161212Z 26010KT 15/10 A3014 RMK A01 T01540097  RH  069%=      5-min Rain = 0
KAD1 161213Z 26009KT 15/10 A3014 RMK A01 T01540097  RH  069%=      5-min Rain = 0
KAD1 161214Z 26010KT 15/10 A3014 RMK A01 T01540097  RH  069%=      5-min Rain = 0
KAD1 161215Z 26010KT 16/10 A3014 RMK A01 T01550098  RH  069%=      5-min Rain = 0
KAD1 161216Z 25010KT 16/10 A3014 RMK A01 T01550098  RH  069%=      5-min Rain = 0
KAD1 161217Z 26011KT 16/10 A3014 RMK A01 T01550098  RH  069%=      5-min Rain = 0
KAD1 161218Z 25011KT 16/10 A3014 RMK A01 T01560098  RH  069%=      5-min Rain = 0
KAD1 161219Z 25011KT 16/10 A3015 RMK A01 T01550098  RH  069%=      5-min Rain = 0
KAD1 161220Z 26011KT 16/10 A3015 RMK A01 T01560098  RH  068%=      5-min Rain = 0
KAD1 161221Z 26011KT 16/10 A3015 RMK A01 T01560098  RH  068%=      5-min Rain = 0
KAD1 161222Z 25011KT 16/10 A3015 RMK A01 T01560098  RH  069%=      5-min Rain = 0
KAD1 161223Z 25011KT 16/10 A3015 RMK A01 T01550098  RH  069%=      5-min Rain = 0
KAD1 161224Z 26010KT 16/10 A3015 RMK A01 T01550098  RH  069%=      5-min Rain = 0
KAD1 161225Z 25010KT 16/10 A3015 RMK A01 T01550098  RH  069%=      5-min Rain = 0
KAD1 161226Z 26010KT 16/10 A3015 RMK A01 T01550098  RH  069%=      5-min Rain = 0
KAD1 161227Z 26010KT 16/10 A3015 RMK A01 T01550098  RH  069%=      5-min Rain = 0
KAD1 161228Z 26010KT 16/10 A3015 RMK A01 T01550098  RH  069%=      5-min Rain = 0
KAD1 161229Z 26009KT 15/10 A3015 RMK A01 T01540098  RH  069%=      5-min Rain = 0
KAD1 161230Z 26010KT 15/10 A3015 RMK A01 T01530097  RH  069%=      5-min Rain = 0
KAD1 161231Z 26009KT 15/10 A3015 RMK A01 T01530098  RH  070%=      5-min Rain = 0
KAD1 161232Z 26009KT 15/10 A3015 RMK A01 T01530098  RH  070%=      5-min Rain = 0
KAD1 161233Z 26009KT 15/10 A3015 RMK A01 T01520097  RH  070%=      5-min Rain = 0
KAD1 161234Z 26009KT 15/10 A3015 RMK A01 T01520097  RH  070%=      5-min Rain = 0
KAD1 161235Z 26009KT 15/10 A3015 RMK A01 T01520098  RH  070%=      5-min Rain = 0
KAD1 161236Z 26009KT 15/10 A3015 RMK A01 T01520098  RH  070%=      5-min Rain = 0
KAD1 161237Z 25009KT 15/10 A3015 RMK A01 T01510098  RH  070%=      5-min Rain = 0
KAD1 161238Z 25009KT 15/10 A3015 RMK A01 T01520098  RH  070%=      5-min Rain = 0
KAD1 161239Z 25009KT 15/10 A3015 RMK A01 T01510098  RH  070%=      5-min Rain = 0
KAD1 161240Z 25009KT 15/10 A3015 RMK A01 T01520098  RH  070%=      5-min Rain = 0
KAD1 161241Z 25009KT 15/10 A3015 RMK A01 T01520098  RH  070%=      5-min Rain = 0
KAD1 161242Z 25010KT 15/10 A3015 RMK A01 T01520098  RH  070%=      5-min Rain = 0
KAD1 161243Z 25010KT 15/10 A3015 RMK A01 T01520099  RH  070%=      5-min Rain = 0
KAD1 161244Z 25010KT 15/10 A3015 RMK A01 T01520099  RH  070%=      5-min Rain = 0
KAD1 161245Z 25009KT 15/10 A3015 RMK A01 T01520099  RH  070%=      5-min Rain = 0
KAD1 161246Z 25010KT 15/10 A3015 RMK A01 T01530099  RH  070%=      5-min Rain = 0
KAD1 161247Z 25010KT 15/10 A3015 RMK A01 T01530099  RH  070%=      5-min Rain = 0
KAD1 161248Z 25010KT 15/10 A3015 RMK A01 T01530100  RH  070%=      5-min Rain = 0
KAD1 161249Z 25010KT 15/10 A3015 RMK A01 T01540100  RH  070%=      5-min Rain = 0
KAD1 161250Z 25010KT 15/10 A3015 RMK A01 T01540100  RH  070%=      5-min Rain = 0
KAD1 161251Z 25010KT 15/10 A3015 RMK A01 T01540100  RH  070%=      5-min Rain = 0
KAD1 161252Z 25010KT 16/10 A3015 RMK A01 T01550100  RH  070%=      5-min Rain = 0
KAD1 161253Z 25010KT 16/10 A3015 RMK A01 T01550100  RH  070%=      5-min Rain = 0
KAD1 161254Z 25010KT 16/10 A3015 RMK A01 T01550100  RH  070%=      5-min Rain = 0
KAD1 161255Z 25010KT 16/10 A3015 RMK A01 T01550100  RH  070%=      5-min Rain = 0
KAD1 161256Z 25009KT 16/10 A3015 RMK A01 T01560100  RH  070%=      5-min Rain = 0
KAD1 161257Z 26009KT 16/10 A3015 RMK A01 T01560101  RH  070%=      5-min Rain = 0
KAD1 161258Z 25009KT 16/10 A3015 RMK A01 T01570101  RH  070%=      5-min Rain = 0
KAD1 161259Z 26009KT 16/10 A3015 RMK A01 T01570101  RH  069%=      5-min Rain = 0
KAD1 161300Z 25009KT 16/10 A3015 RMK A01 T01570101  RH  069%=      5-min Rain = 0
KAD1 161301Z 25009KT 16/10 A3015 RMK A01 T01580102  RH  069%=      5-min Rain = 0
KAD1 161302Z 25009KT 16/10 A3015 RMK A01 T01580101  RH  069%=      5-min Rain = 0
KAD1 161303Z 25009KT 16/10 A3015 RMK A01 T01580102  RH  069%=      5-min Rain = 0
KAD1 161304Z 25008KT 16/10 A3016 RMK A01 T01580102  RH  069%=      5-min Rain = 0
KAD1 161305Z 25007KT 16/10 A3016 RMK A01 T01580102  RH  069%=      5-min Rain = 0
KAD1 161306Z 25007KT 16/10 A3016 RMK A01 T01580102  RH  069%=      5-min Rain = 0
KAD1 161307Z 25007KT 16/10 A3016 RMK A01 T01590102  RH  069%=      5-min Rain = 0
KAD1 161308Z 25007KT 16/10 A3016 RMK A01 T01590103  RH  069%=      5-min Rain = 0
KAD1 161309Z 26006KT 16/10 A3016 RMK A01 T01580103  RH  070%=      5-min Rain = 0
KAD1 161310Z 26006KT 16/10 A3016 RMK A01 T01580103  RH  070%=      5-min Rain = 0
KAD1 161311Z 26006KT 16/10 A3016 RMK A01 T01580103  RH  070%=      5-min Rain = 0
KAD1 161312Z 26007KT 16/10 A3016 RMK A01 T01580102  RH  070%=      5-min Rain = 0
KAD1 161313Z 25007KT 16/10 A3016 RMK A01 T01580103  RH  070%=      5-min Rain = 0
KAD1 161314Z 26008KT 16/10 A3016 RMK A01 T01590104  RH  069%=      5-min Rain = 0
KAD1 161315Z 26007KT 16/10 A3016 RMK A01 T01600104  RH  069%=      5-min Rain = 0
KAD1 161316Z 26007KT 16/10 A3016 RMK A01 T01620104  RH  069%=      5-min Rain = 0
KAD1 161317Z 26007KT 16/10 A3016 RMK A01 T01620104  RH  068%=      5-min Rain = 0
KAD1 161318Z 26007KT 16/10 A3016 RMK A01 T01630104  RH  068%=      5-min Rain = 0
KAD1 161319Z 26007KT 16/11 A3016 RMK A01 T01640105  RH  068%=      5-min Rain = 0
KAD1 161320Z 26007KT 16/11 A3016 RMK A01 T01640105  RH  068%=      5-min Rain = 0
KAD1 161321Z 26008KT 17/11 A3016 RMK A01 T01650105  RH  068%=      5-min Rain = 0
KAD1 161322Z 26007KT 17/11 A3016 RMK A01 T01660105  RH  067%=      5-min Rain = 0
KAD1 161323Z 26008KT 17/11 A3016 RMK A01 T01660105  RH  067%=      5-min Rain = 0
KAD1 161324Z 26008KT 17/11 A3016 RMK A01 T01660106  RH  067%=      5-min Rain = 0
KAD1 161325Z 26008KT 17/11 A3016 RMK A01 T01670106  RH  067%=      5-min Rain = 0
KAD1 161326Z 26008KT 17/11 A3016 RMK A01 T01670106  RH  067%=      5-min Rain = 0
KAD1 161327Z 27008KT 17/11 A3016 RMK A01 T01680107  RH  067%=      5-min Rain = 0
KAD1 161328Z 27008KT 17/11 A3016 RMK A01 T01680106  RH  067%=      5-min Rain = 0
KAD1 161329Z 27008KT 17/11 A3016 RMK A01 T01690107  RH  067%=      5-min Rain = 0
KAD1 161330Z 27008KT 17/11 A3016 RMK A01 T01700107  RH  066%=      5-min Rain = 0
KAD1 161331Z 27007KT 17/11 A3016 RMK A01 T01710107  RH  066%=      5-min Rain = 0
KAD1 161332Z 27007KT 17/11 A3016 RMK A01 T01720107  RH  065%=      5-min Rain = 0
KAD1 161333Z 27008KT 17/11 A3016 RMK A01 T01720107  RH  065%=      5-min Rain = 0
KAD1 161334Z 27007KT 17/11 A3017 RMK A01 T01730107  RH  065%=      5-min Rain = 0
KAD1 161335Z 27008KT 17/11 A3017 RMK A01 T01730106  RH  065%=      5-min Rain = 0
KAD1 161336Z 27008KT 17/11 A3017 RMK A01 T01740106  RH  065%=      5-min Rain = 0
KAD1 161337Z 27008KT 17/11 A3017 RMK A01 T01740107  RH  064%=      5-min Rain = 0
KAD1 161338Z 26008KT 18/11 A3017 RMK A01 T01750107  RH  064%=      5-min Rain = 0
KAD1 161339Z 26008KT 18/11 A3017 RMK A01 T01750107  RH  064%=      5-min Rain = 0
KAD1 161340Z 26008KT 18/11 A3017 RMK A01 T01750107  RH  064%=      5-min Rain = 0
KAD1 161341Z 26007KT 18/11 A3017 RMK A01 T01760108  RH  064%=      5-min Rain = 0
KAD1 161342Z 27008KT 18/11 A3017 RMK A01 T01760108  RH  064%=      5-min Rain = 0
KAD1 161343Z 27007KT 18/11 A3017 RMK A01 T01770108  RH  064%=      5-min Rain = 0
KAD1 161344Z 27007KT 18/11 A3017 RMK A01 T01770108  RH  064%=      5-min Rain = 0
KAD1 161345Z 27008KT 18/11 A3017 RMK A01 T01780108  RH  064%=      5-min Rain = 0
KAD1 161346Z 26008KT 18/11 A3017 RMK A01 T01780109  RH  064%=      5-min Rain = 0
KAD1 161347Z 26009KT 18/11 A3017 RMK A01 T01780109  RH  064%=      5-min Rain = 0
KAD1 161348Z 26008KT 18/11 A3017 RMK A01 T01790108  RH  063%=      5-min Rain = 0
KAD1 161349Z 27008KT 18/11 A3017 RMK A01 T01790109  RH  064%=      5-min Rain = 0
KAD1 161350Z 27008KT 18/11 A3017 RMK A01 T01790109  RH  063%=      5-min Rain = 0
KAD1 161351Z 27008KT 18/11 A3017 RMK A01 T01800109  RH  063%=      5-min Rain = 0
KAD1 161352Z 27009KT 18/11 A3017 RMK A01 T01810109  RH  063%=      5-min Rain = 0
KAD1 161353Z 27009KT 18/11 A3017 RMK A01 T01810109  RH  063%=      5-min Rain = 0
KAD1 161354Z 27009KT 18/11 A3017 RMK A01 T01810110  RH  063%=      5-min Rain = 0
KAD1 161355Z 27008KT 18/11 A3017 RMK A01 T01810109  RH  063%=      5-min Rain = 0
KAD1 161356Z 27009KT 18/11 A3017 RMK A01 T01810110  RH  063%=      5-min Rain = 0
KAD1 161357Z 27010KT 18/11 A3017 RMK A01 T01820109  RH  063%=      5-min Rain = 0
KAD1 161358Z 27009KT 18/11 A3017 RMK A01 T01820109  RH  062%=      5-min Rain = 0
KAD1 161359Z 27008KT 18/11 A3017 RMK A01 T01820110  RH  063%=      5-min Rain = 0
KAD1 161400Z 27009KT 18/11 A3017 RMK A01 T01830110  RH  062%=      5-min Rain = 0
KAD1 161401Z 27008KT 18/11 A3017 RMK A01 T01830110  RH  062%=      5-min Rain = 0
KAD1 161402Z 27008KT 18/11 A3017 RMK A01 T01840111  RH  062%=      5-min Rain = 0
KAD1 161403Z 27008KT 18/11 A3017 RMK A01 T01840111  RH  062%=      5-min Rain = 0
KAD1 161404Z 27010KT 18/11 A3017 RMK A01 T01840110  RH  062%=      5-min Rain = 0
KAD1 161405Z 27009KT 18/11 A3017 RMK A01 T01840110  RH  062%=      5-min Rain = 0
KAD1 161406Z 27010KT 19/11 A3017 RMK A01 T01850110  RH  062%=      5-min Rain = 0
KAD1 161407Z 27009KT 19/11 A3017 RMK A01 T01850110  RH  062%=      5-min Rain = 0
KAD1 161408Z 27010KT 19/11 A3017 RMK A01 T01860110  RH  061%=      5-min Rain = 0
KAD1 161409Z 27009KT 19/11 A3017 RMK A01 T01860109  RH  061%=      5-min Rain = 0
KAD1 161410Z 27009KT 19/11 A3017 RMK A01 T01860110  RH  061%=      5-min Rain = 0
KAD1 161411Z 26009KT 19/11 A3017 RMK A01 T01860111  RH  061%=      5-min Rain = 0
KAD1 161412Z 27010KT 19/11 A3017 RMK A01 T01870110  RH  061%=      5-min Rain = 0
KAD1 161413Z 27009KT 19/11 A3017 RMK A01 T01870110  RH  061%=      5-min Rain = 0
KAD1 161414Z 27010KT 19/11 A3017 RMK A01 T01870110  RH  061%=      5-min Rain = 0
KAD1 161415Z 27009KT 19/11 A3017 RMK A01 T01880110  RH  061%=      5-min Rain = 0
KAD1 161416Z 27009KT 19/11 A3017 RMK A01 T01880111  RH  061%=      5-min Rain = 0
KAD1 161417Z 27009KT 19/11 A3017 RMK A01 T01890111  RH  060%=      5-min Rain = 0
KAD1 161418Z 27011KT 19/11 A3017 RMK A01 T01900110  RH  060%=      5-min Rain = 0
KAD1 161419Z 26009KT 19/11 A3017 RMK A01 T01900110  RH  060%=      5-min Rain = 0
KAD1 161420Z 27009KT 19/11 A3017 RMK A01 T01900111  RH  060%=      5-min Rain = 0
KAD1 161421Z 28010KT 19/11 A3017 RMK A01 T01900111  RH  060%=      5-min Rain = 0
KAD1 161422Z 28011KT 19/11 A3017 RMK A01 T01910110  RH  059%=      5-min Rain = 0
KAD1 161423Z 28010KT 19/11 A3017 RMK A01 T01910111  RH  059%=      5-min Rain = 0
KAD1 161424Z 28011KT 19/11 A3017 RMK A01 T01920110  RH  059%=      5-min Rain = 0
KAD1 161425Z 28008KT 19/11 A3017 RMK A01 T01920109  RH  059%=      5-min Rain = 0
KAD1 161426Z 29009KT 19/11 A3017 RMK A01 T01930113  RH  060%=      5-min Rain = 0
KAD1 161427Z 28011KT 19/11 A3017 RMK A01 T01940109  RH  058%=      5-min Rain = 0
KAD1 161428Z 29010KT 19/11 A3018 RMK A01 T01930109  RH  058%=      5-min Rain = 0
KAD1 161429Z 29010KT 19/11 A3018 RMK A01 T01930110  RH  058%=      5-min Rain = 0
KAD1 161430Z 29010KT 19/11 A3018 RMK A01 T01930110  RH  058%=      5-min Rain = 0
KAD1 161431Z 29008KT 19/11 A3018 RMK A01 T01920110  RH  059%=      5-min Rain = 0
KAD1 161432Z 29010KT 19/11 A3018 RMK A01 T01920110  RH  059%=      5-min Rain = 0
KAD1 161433Z 29008KT 19/11 A3018 RMK A01 T01920110  RH  059%=      5-min Rain = 0
KAD1 161434Z 29008KT 19/11 A3018 RMK A01 T01930112  RH  059%=      5-min Rain = 0
KAD1 161435Z 29010KT 19/11 A3018 RMK A01 T01930110  RH  059%=      5-min Rain = 0
KAD1 161436Z 31010KT 19/11 A3018 RMK A01 T01940110  RH  058%=      5-min Rain = 0
KAD1 161437Z 30010KT 19/11 A3018 RMK A01 T01920109  RH  059%=      5-min Rain = 0
KAD1 161438Z 31008KT 19/11 A3018 RMK A01 T01910110  RH  059%=      5-min Rain = 0
KAD1 161439Z 30007KT 19/11 A3018 RMK A01 T01910111  RH  060%=      5-min Rain = 0
KAD1 161440Z 31009KT 19/11 A3018 RMK A01 T01910111  RH  060%=      5-min Rain = 0
KAD1 161441Z 31009KT 19/11 A3018 RMK A01 T01900109  RH  059%=      5-min Rain = 0
KAD1 161442Z 31008KT 19/11 A3018 RMK A01 T01890109  RH  060%=      5-min Rain = 0
KAD1 161443Z 31009KT 19/11 A3018 RMK A01 T01890110  RH  060%=      5-min Rain = 0
KAD1 161444Z 31008KT 19/11 A3019 RMK A01 T01890110  RH  060%=      5-min Rain = 0
KAD1 161445Z 32009KT 19/11 A3019 RMK A01 T01880110  RH  060%=      5-min Rain = 0
KAD1 161446Z 32010KT 19/11 A3019 RMK A01 T01880108  RH  060%=      5-min Rain = 0
KAD1 161447Z 31010KT 19/11 A3019 RMK A01 T01870109  RH  061%=      5-min Rain = 0
KAD1 161448Z 31009KT 19/11 A3019 RMK A01 T01860108  RH  060%=      5-min Rain = 0
KAD1 161449Z 31009KT 19/11 A3019 RMK A01 T01860105  RH  059%=      5-min Rain = 0
KAD1 161450Z 31008KT 19/11 A3019 RMK A01 T01850105  RH  059%=      5-min Rain = 0
KAD1 161451Z 31006KT 19/11 A3019 RMK A01 T01850108  RH  061%=      5-min Rain = 0
KAD1 161452Z 32008KT 19/11 A3019 RMK A01 T01870109  RH  061%=      5-min Rain = 0
KAD1 161453Z 32007KT 19/11 A3019 RMK A01 T01870108  RH  060%=      5-min Rain = 0
KAD1 161454Z 31007KT 19/11 A3019 RMK A01 T01880108  RH  060%=      5-min Rain = 0
KAD1 161455Z 32008KT 19/11 A3019 RMK A01 T01880107  RH  059%=      5-min Rain = 0
KAD1 161456Z 32008KT 19/11 A3019 RMK A01 T01880105  RH  059%=      5-min Rain = 0
KAD1 161457Z 32008KT 19/11 A3019 RMK A01 T01870106  RH  060%=      5-min Rain = 0
KAD1 161458Z 31009KT 19/11 A3019 RMK A01 T01860105  RH  059%=      5-min Rain = 0
KAD1 161459Z 31008KT 19/10 A3019 RMK A01 T01870103  RH  058%=      5-min Rain = 0
KAD1 161500Z 30009KT 19/11 A3019 RMK A01 T01880105  RH  059%=      5-min Rain = 0
KAD1 161501Z 30006KT 19/11 A3019 RMK A01 T01870107  RH  060%=      5-min Rain = 0
KAD1 161502Z 32007KT 19/11 A3019 RMK A01 T01880112  RH  061%=      5-min Rain = 0
KAD1 161503Z 32007KT 19/11 A3019 RMK A01 T01880114  RH  062%=      5-min Rain = 0
KAD1 161504Z 32007KT 19/11 A3019 RMK A01 T01880112  RH  061%=      5-min Rain = 0
KAD1 161505Z 33006KT 19/11 A3019 RMK A01 T01850113  RH  063%=      5-min Rain = 0
KAD1 161506Z 32007KT 19/12 A3019 RMK A01 T01850115  RH  064%=      5-min Rain = 0
KAD1 161507Z 32007KT 19/11 A302 RMK A01 T01860112  RH  062%=      5-min Rain = 0
KAD1 161508Z 32007KT 19/11 A302 RMK A01 T01860113  RH  062%=      5-min Rain = 0
KAD1 161509Z 32006KT 18/11 A302 RMK A01 T01840111  RH  062%=      5-min Rain = 0
KAD1 161510Z 32006KT 18/11 A302 RMK A01 T01830113  RH  063%=      5-min Rain = 0
KAD1 161511Z 32007KT 19/12 A302 RMK A01 T01850115  RH  064%=      5-min Rain = 0
KAD1 161512Z 32008KT 19/11 A302 RMK A01 T01870113  RH  062%=      5-min Rain = 0
KAD1 161513Z 32007KT 19/11 A302 RMK A01 T01860111  RH  062%=      5-min Rain = 0
KAD1 161514Z 32007KT 18/11 A302 RMK A01 T01840110  RH  062%=      5-min Rain = 0
KAD1 161515Z 32006KT 18/11 A302 RMK A01 T01840110  RH  062%=      5-min Rain = 0
KAD1 161516Z 32006KT 19/11 A302 RMK A01 T01850108  RH  061%=      5-min Rain = 0
KAD1 161517Z 32006KT 19/11 A302 RMK A01 T01860110  RH  061%=      5-min Rain = 0
KAD1 161518Z 32007KT 19/11 A302 RMK A01 T01870109  RH  060%=      5-min Rain = 0
KAD1 161519Z 33006KT 19/11 A302 RMK A01 T01880106  RH  059%=      5-min Rain = 0
KAD1 161520Z 32005KT 19/11 A302 RMK A01 T01890108  RH  059%=      5-min Rain = 0
KAD1 161521Z 33007KT 19/10 A302 RMK A01 T01920104  RH  057%=      5-min Rain = 0
KAD1 161522Z 31006KT 19/10 A302 RMK A01 T01910099  RH  055%=      5-min Rain = 0
KAD1 161523Z 32007KT 19/10 A302 RMK A01 T01920098  RH  055%=      5-min Rain = 0
KAD1 161524Z 31006KT 19/10 A302 RMK A01 T01940096  RH  053%=      5-min Rain = 0
KAD1 161525Z 32005KT 20/09 A302 RMK A01 T01950091  RH  051%=      5-min Rain = 0
KAD1 161526Z 32005KT 20/09 A302 RMK A01 T01950092  RH  051%=      5-min Rain = 0
KAD1 161527Z 32006KT 20/09 A302 RMK A01 T01960094  RH  052%=      5-min Rain = 0
KAD1 161528Z 31006KT 20/09 A302 RMK A01 T01980090  RH  050%=      5-min Rain = 0
KAD1 161529Z 32005KT 20/09 A302 RMK A01 T01970088  RH  050%=      5-min Rain = 0
KAD1 161530Z 32005KT 20/09 A302 RMK A01 T01960090  RH  050%=      5-min Rain = 0
KAD1 161531Z 31006KT 20/09 A302 RMK A01 T01970089  RH  050%=      5-min Rain = 0
KAD1 161532Z 32006KT 20/09 A302 RMK A01 T01970089  RH  050%=      5-min Rain = 0
KAD1 161533Z 32005KT 20/09 A302 RMK A01 T01960089  RH  050%=      5-min Rain = 0
KAD1 161534Z 33005KT 20/09 A302 RMK A01 T01960088  RH  049%=      5-min Rain = 0
KAD1 161535Z 32004KT 20/09 A302 RMK A01 T01970093  RH  051%=      5-min Rain = 0
KAD1 161536Z 31005KT 20/09 A302 RMK A01 T01990088  RH  049%=      5-min Rain = 0
KAD1 161537Z 30005KT 20/09 A302 RMK A01 T02010085  RH  047%=      5-min Rain = 0
KAD1 161538Z 30005KT 20/08 A302 RMK A01 T02010083  RH  046%=      5-min Rain = 0
KAD1 161539Z 31004KT 20/08 A302 RMK A01 T02000084  RH  047%=      5-min Rain = 0
KAD1 161540Z 31006KT 20/09 A302 RMK A01 T02010085  RH  047%=      5-min Rain = 0
KAD1 161541Z 31004KT 20/08 A302 RMK A01 T02010083  RH  046%=      5-min Rain = 0
KAD1 161542Z 31004KT 20/08 A3021 RMK A01 T02010084  RH  047%=      5-min Rain = 0
KAD1 161543Z 31005KT 20/09 A3021 RMK A01 T02020086  RH  047%=      5-min Rain = 0
KAD1 161544Z 32005KT 20/08 A3021 RMK A01 T02040084  RH  046%=      5-min Rain = 0
KAD1 161545Z 30004KT 21/08 A3021 RMK A01 T02050084  RH  046%=      5-min Rain = 0
KAD1 161546Z 31005KT 21/08 A3021 RMK A01 T02060083  RH  045%=      5-min Rain = 0
KAD1 161547Z 31004KT 21/09 A3021 RMK A01 T02070085  RH  046%=      5-min Rain = 0
KAD1 161548Z 32005KT 21/08 A3021 RMK A01 T02080083  RH  045%=      5-min Rain = 0
KAD1 161549Z 32004KT 21/08 A3021 RMK A01 T02080084  RH  045%=      5-min Rain = 0
KAD1 161550Z 31003KT 21/08 A3021 RMK A01 T02080083  RH  045%=      5-min Rain = 0
KAD1 161551Z 32003KT 21/08 A3021 RMK A01 T02090083  RH  044%=      5-min Rain = 0
KAD1 161552Z 34005KT 21/09 A3021 RMK A01 T02100087  RH  045%=      5-min Rain = 0
KAD1 161553Z 33004KT 21/09 A3021 RMK A01 T02100086  RH  045%=      5-min Rain = 0
KAD1 161554Z 30005KT 21/09 A3021 RMK A01 T02120088  RH  045%=      5-min Rain = 0
KAD1 161555Z 32004KT 21/08 A3021 RMK A01 T02130084  RH  043%=      5-min Rain = 0
KAD1 161556Z 31003KT 21/09 A3021 RMK A01 T02130085  RH  044%=      5-min Rain = 0
KAD1 161557Z 31004KT 21/08 A3021 RMK A01 T02120083  RH  043%=      5-min Rain = 0
KAD1 161558Z 33005KT 21/08 A3021 RMK A01 T02120084  RH  044%=      5-min Rain = 0
KAD1 161559Z 33005KT 21/09 A3021 RMK A01 T02130085  RH  044%=      5-min Rain = 0
KAD1 161600Z 33006KT 21/09 A3021 RMK A01 T02140088  RH  045%=      5-min Rain = 0
KAD1 161601Z 32005KT 22/09 A3021 RMK A01 T02150087  RH  044%=      5-min Rain = 0
KAD1 161602Z 33004KT 22/09 A3021 RMK A01 T02160086  RH  043%=      5-min Rain = 0
KAD1 161603Z 34005KT 22/09 A3021 RMK A01 T02170087  RH  044%=      5-min Rain = 0
KAD1 161604Z 34006KT 22/09 A3021 RMK A01 T02170087  RH  043%=      5-min Rain = 0
KAD1 161605Z 33006KT 22/09 A3021 RMK A01 T02170087  RH  044%=      5-min Rain = 0
KAD1 161606Z 33005KT 22/09 A3021 RMK A01 T02170086  RH  043%=      5-min Rain = 0
KAD1 161607Z 34005KT 22/09 A3021 RMK A01 T02170089  RH  044%=      5-min Rain = 0
KAD1 161608Z 33005KT 22/09 A3021 RMK A01 T02190089  RH  043%=      5-min Rain = 0
KAD1 161609Z 31004KT 22/09 A3021 RMK A01 T02190090  RH  044%=      5-min Rain = 0
KAD1 161610Z 31003KT 22/09 A3021 RMK A01 T02190087  RH  043%=      5-min Rain = 0
KAD1 161611Z 31004KT 22/09 A3021 RMK A01 T02200088  RH  043%=      5-min Rain = 0
KAD1 161612Z 30004KT 22/09 A3021 RMK A01 T02200090  RH  043%=      5-min Rain = 0
KAD1 161613Z 30004KT 22/09 A3021 RMK A01 T02210089  RH  043%=      5-min Rain = 0
KAD1 161614Z 29002KT 22/09 A3021 RMK A01 T02220089  RH  043%=      5-min Rain = 0
KAD1 161615Z 35002KT 22/09 A3021 RMK A01 T02230090  RH  043%=      5-min Rain = 0
KAD1 161616Z 34005KT 22/09 A3021 RMK A01 T02230090  RH  043%=      5-min Rain = 0
KAD1 161617Z 35004KT 22/09 A3021 RMK A01 T02230091  RH  043%=      5-min Rain = 0
KAD1 161618Z 34003KT 22/09 A3021 RMK A01 T02230090  RH  043%=      5-min Rain = 0
KAD1 161619Z 35003KT 22/09 A3021 RMK A01 T02230091  RH  043%=      5-min Rain = 0
KAD1 161620Z 36005KT 22/09 A3021 RMK A01 T02230092  RH  043%=      5-min Rain = 0
KAD1 161621Z 02004KT 22/09 A3021 RMK A01 T02240093  RH  043%=      5-min Rain = 0
KAD1 161622Z 01006KT 22/09 A3021 RMK A01 T02240090  RH  042%=      5-min Rain = 0
KAD1 161623Z 00005KT 22/09 A3021 RMK A01 T02240089  RH  042%=      5-min Rain = 0
KAD1 161624Z 33004KT 22/09 A3021 RMK A01 T02240088  RH  042%=      5-min Rain = 0
KAD1 161625Z 32004KT 22/09 A3021 RMK A01 T02240087  RH  042%=      5-min Rain = 0
KAD1 161626Z 33006KT 22/09 A3022 RMK A01 T02240089  RH  042%=      5-min Rain = 0
KAD1 161627Z 33007KT 23/09 A3021 RMK A01 T02250088  RH  041%=      5-min Rain = 0
KAD1 161628Z 34006KT 23/09 A3021 RMK A01 T02250087  RH  041%=      5-min Rain = 0
KAD1 161629Z 33004KT 23/09 A3022 RMK A01 T02250086  RH  041%=      5-min Rain = 0
KAD1 161630Z 34004KT 23/09 A3021 RMK A01 T02250090  RH  042%=      5-min Rain = 0
KAD1 161631Z 34003KT 23/09 A3021 RMK A01 T02260088  RH  041%=      5-min Rain = 0
KAD1 161632Z 35002KT 23/09 A3021 RMK A01 T02260087  RH  041%=      5-min Rain = 0
KAD1 161633Z 35004KT 23/09 A3021 RMK A01 T02260088  RH  041%=      5-min Rain = 0
KAD1 161634Z 33005KT 23/09 A3021 RMK A01 T02270089  RH  041%=      5-min Rain = 0
KAD1 161635Z 34003KT 23/09 A3021 RMK A01 T02270086  RH  040%=      5-min Rain = 0
KAD1 161636Z 01004KT 23/09 A3021 RMK A01 T02270090  RH  042%=      5-min Rain = 0
KAD1 161637Z 01004KT 23/09 A3021 RMK A01 T02270090  RH  042%=      5-min Rain = 0
KAD1 161638Z 33005KT 23/09 A3021 RMK A01 T02290092  RH  042%=      5-min Rain = 0
KAD1 161639Z 34004KT 23/09 A3022 RMK A01 T02290093  RH  042%=      5-min Rain = 0
KAD1 161640Z 33003KT 23/09 A3022 RMK A01 T02300090  RH  041%=      5-min Rain = 0
KAD1 161641Z 35003KT 23/09 A3021 RMK A01 T02300094  RH  042%=      5-min Rain = 0
KAD1 161642Z 36004KT 23/10 A3021 RMK A01 T02320097  RH  042%=      5-min Rain = 0
KAD1 161643Z 01005KT 23/10 A3022 RMK A01 T02340098  RH  042%=      5-min Rain = 0
KAD1 161644Z 01007KT 24/10 A3022 RMK A01 T02350096  RH  041%=      5-min Rain = 0
KAD1 161645Z 01006KT 23/09 A3022 RMK A01 T02330094  RH  041%=      5-min Rain = 0
KAD1 161646Z 33005KT 23/09 A3022 RMK A01 T02310094  RH  041%=      5-min Rain = 0
KAD1 161647Z 33004KT 23/09 A3022 RMK A01 T02310094  RH  042%=      5-min Rain = 0
KAD1 161648Z 35004KT 23/10 A3022 RMK A01 T02310095  RH  042%=      5-min Rain = 0
KAD1 161649Z 35004KT 23/10 A3022 RMK A01 T02310096  RH  042%=      5-min Rain = 0
KAD1 161650Z 35006KT 23/10 A3022 RMK A01 T02310096  RH  042%=      5-min Rain = 0
KAD1 161651Z 35004KT 23/10 A3021 RMK A01 T02310099  RH  043%=      5-min Rain = 0
KAD1 161652Z 36005KT 23/10 A3022 RMK A01 T02320098  RH  043%=      5-min Rain = 0
KAD1 161653Z 01002KT 23/10 A3021 RMK A01 T02310095  RH  042%=      5-min Rain = 0
KAD1 161654Z 03004KT 23/10 A3021 RMK A01 T02300097  RH  043%=      5-min Rain = 0
KAD1 161655Z 36006KT 23/10 A3021 RMK A01 T02310103  RH  044%=      5-min Rain = 0
KAD1 161656Z 33005KT 23/10 A3022 RMK A01 T02330099  RH  043%=      5-min Rain = 0
KAD1 161657Z 35004KT 23/10 A3022 RMK A01 T02330099  RH  043%=      5-min Rain = 0
KAD1 161658Z 33004KT 23/10 A3022 RMK A01 T02320101  RH  043%=      5-min Rain = 0
KAD1 161659Z 35004KT 23/10 A3022 RMK A01 T02330099  RH  042%=      5-min Rain = 0
KAD1 161700Z 34006KT 23/10 A3022 RMK A01 T02330099  RH  043%=      5-min Rain = 0
KAD1 161701Z 34003KT 23/10 A3022 RMK A01 T02320097  RH  042%=      5-min Rain = 0
KAD1 161702Z 33002KT 23/10 A3022 RMK A01 T02310098  RH  043%=      5-min Rain = 0
KAD1 161703Z 34002KT 23/10 A3022 RMK A01 T02310102  RH  044%=      5-min Rain = 0
KAD1 161704Z 34005KT 23/10 A3022 RMK A01 T02330104  RH  044%=      5-min Rain = 0
KAD1 161705Z 36005KT 24/10 A3022 RMK A01 T02350103  RH  043%=      5-min Rain = 0
KAD1 161706Z 00005KT 23/11 A3022 RMK A01 T02340105  RH  044%=      5-min Rain = 0
KAD1 161707Z 02005KT 23/10 A3021 RMK A01 T02340104  RH  044%=      5-min Rain = 0
KAD1 161708Z 01003KT 23/10 A3021 RMK A01 T02330103  RH  044%=      5-min Rain = 0
KAD1 161709Z 03005KT 23/11 A3021 RMK A01 T02330107  RH  045%=      5-min Rain = 0
KAD1 161710Z 04005KT 23/11 A3021 RMK A01 T02340107  RH  045%=      5-min Rain = 0
KAD1 161711Z 36004KT 24/11 A3021 RMK A01 T02360110  RH  045%=      5-min Rain = 0
KAD1 161712Z 35002KT 24/10 A3021 RMK A01 T02370104  RH  043%=      5-min Rain = 0
KAD1 161713Z 03004KT 24/11 A3021 RMK A01 T02360108  RH  044%=      5-min Rain = 0
KAD1 161714Z 03004KT 24/11 A3021 RMK A01 T02370110  RH  045%=      5-min Rain = 0
KAD1 161715Z 00004KT 24/11 A3021 RMK A01 T02380109  RH  044%=      5-min Rain = 0
KAD1 161716Z 36003KT 24/11 A3021 RMK A01 T02390112  RH  045%=      5-min Rain = 0
KAD1 161717Z 36005KT 24/11 A3021 RMK A01 T02400110  RH  044%=      5-min Rain = 0
KAD1 161718Z 35003KT 24/11 A3021 RMK A01 T02390110  RH  044%=      5-min Rain = 0
KAD1 161719Z 35003KT 24/11 A3021 RMK A01 T02390108  RH  044%=      5-min Rain = 0
KAD1 161720Z 35003KT 24/11 A3021 RMK A01 T02380110  RH  044%=      5-min Rain = 0
KAD1 161721Z 04005KT 24/11 A3021 RMK A01 T02380111  RH  045%=      5-min Rain = 0
KAD1 161722Z 04004KT 24/11 A3021 RMK A01 T02380110  RH  044%=      5-min Rain = 0
KAD1 161723Z 04004KT 24/11 A3021 RMK A01 T02380109  RH  044%=      5-min Rain = 0
KAD1 161724Z 05003KT 24/11 A3021 RMK A01 T02370111  RH  045%=      5-min Rain = 0
KAD1 161725Z 03002KT 24/11 A3021 RMK A01 T02390114  RH  045%=      5-min Rain = 0
KAD1 161726Z 02003KT 24/11 A3021 RMK A01 T02420113  RH  044%=      5-min Rain = 0
KAD1 161727Z 02004KT 24/11 A3021 RMK A01 T02420113  RH  045%=      5-min Rain = 0
KAD1 161728Z 02005KT 24/11 A3021 RMK A01 T02420114  RH  045%=      5-min Rain = 0
KAD1 161729Z 01004KT 24/11 A3021 RMK A01 T02430114  RH  044%=      5-min Rain = 0
KAD1 161730Z 00003KT 24/11 A3021 RMK A01 T02420112  RH  044%=      5-min Rain = 0
KAD1 161731Z 34004KT 24/11 A3021 RMK A01 T02420111  RH  044%=      5-min Rain = 0
KAD1 161732Z 34003KT 24/11 A3021 RMK A01 T02410111  RH  044%=      5-min Rain = 0
KAD1 161733Z 03004KT 24/12 A3021 RMK A01 T02420115  RH  045%=      5-min Rain = 0
KAD1 161734Z 02003KT 24/11 A3021 RMK A01 T02430109  RH  043%=      5-min Rain = 0
KAD1 161735Z 05002KT 24/11 A3021 RMK A01 T02420114  RH  045%=      5-min Rain = 0
KAD1 161736Z 07002KT 24/11 A3021 RMK A01 T02440112  RH  043%=      5-min Rain = 0
KAD1 161737Z 06002KT 24/11 A3021 RMK A01 T02440110  RH  043%=      5-min Rain = 0
KAD1 161738Z 05005KT 24/11 A3021 RMK A01 T02440111  RH  043%=      5-min Rain = 0
KAD1 161739Z 05004KT 24/11 A3021 RMK A01 T02440108  RH  042%=      5-min Rain = 0
KAD1 161740Z 04004KT 24/11 A3021 RMK A01 T02420107  RH  043%=      5-min Rain = 0
KAD1 161741Z 01006KT 24/11 A3021 RMK A01 T02420113  RH  044%=      5-min Rain = 0
KAD1 161742Z 01006KT 25/11 A3021 RMK A01 T02450109  RH  042%=      5-min Rain = 0
KAD1 161743Z 01004KT 24/11 A3021 RMK A01 T02440108  RH  042%=      5-min Rain = 0
KAD1 161744Z 01003KT 24/11 A3021 RMK A01 T02430109  RH  043%=      5-min Rain = 0
KAD1 161745Z 35002KT 24/11 A3021 RMK A01 T02440111  RH  043%=      5-min Rain = 0
KAD1 161746Z 00002KT 25/11 A3021 RMK A01 T02450108  RH  042%=      5-min Rain = 0
KAD1 161747Z 03005KT 25/11 A3021 RMK A01 T02450108  RH  042%=      5-min Rain = 0
KAD1 161748Z 02007KT 25/11 A3021 RMK A01 T02450108  RH  042%=      5-min Rain = 0
KAD1 161749Z 04005KT 25/11 A3021 RMK A01 T02450109  RH  042%=      5-min Rain = 0
KAD1 161750Z 35004KT 25/11 A3021 RMK A01 T02460111  RH  042%=      5-min Rain = 0
KAD1 161751Z 32004KT 25/11 A3021 RMK A01 T02490112  RH  042%=      5-min Rain = 0
KAD1 161752Z 32004KT 25/11 A3021 RMK A01 T02520110  RH  041%=      5-min Rain = 0
KAD1 161753Z 34004KT 25/11 A3021 RMK A01 T02520110  RH  041%=      5-min Rain = 0
KAD1 161754Z 01003KT 25/11 A3021 RMK A01 T02510112  RH  042%=      5-min Rain = 0
KAD1 161755Z 01007KT 25/11 A3021 RMK A01 T02520108  RH  040%=      5-min Rain = 0
KAD1 161756Z 00005KT 25/10 A3021 RMK A01 T02510100  RH  039%=      5-min Rain = 0
KAD1 161757Z 00005KT 25/11 A3021 RMK A01 T02500106  RH  040%=      5-min Rain = 0
KAD1 161758Z 01005KT 25/11 A3021 RMK A01 T02500109  RH  041%=      5-min Rain = 0
KAD1 161759Z 36003KT 25/11 A3021 RMK A01 T02510108  RH  040%=      5-min Rain = 0
KAD1 161800Z 02005KT 25/11 A3021 RMK A01 T02510109  RH  041%=      5-min Rain = 0
KAD1 161801Z 02006KT 25/11 A3021 RMK A01 T02530106  RH  040%=      5-min Rain = 0
KAD1 161802Z 03004KT 25/10 A3021 RMK A01 T02520104  RH  039%=      5-min Rain = 0
KAD1 161803Z 02004KT 25/11 A3021 RMK A01 T02500108  RH  041%=      5-min Rain = 0
KAD1 161804Z 04005KT 25/11 A3021 RMK A01 T02510109  RH  041%=      5-min Rain = 0
KAD1 161805Z 05004KT 25/11 A3021 RMK A01 T02520105  RH  039%=      5-min Rain = 0
KAD1 161806Z 07003KT 25/11 A3021 RMK A01 T02520105  RH  040%=      5-min Rain = 0
KAD1 161807Z 05004KT 25/11 A3021 RMK A01 T02520107  RH  040%=      5-min Rain = 0
KAD1 161808Z 03005KT 25/11 A3021 RMK A01 T02530107  RH  040%=      5-min Rain = 0
KAD1 161809Z 36006KT 26/11 A3021 RMK A01 T02550109  RH  040%=      5-min Rain = 0
KAD1 161810Z 01005KT 26/11 A3021 RMK A01 T02550109  RH  040%=      5-min Rain = 0
KAD1 161811Z 34003KT 26/11 A3021 RMK A01 T02550105  RH  039%=      5-min Rain = 0
KAD1 161812Z 35005KT 25/11 A3021 RMK A01 T02540106  RH  039%=      5-min Rain = 0
KAD1 161813Z 00005KT 26/11 A3021 RMK A01 T02550105  RH  039%=      5-min Rain = 0
KAD1 161814Z 34004KT 26/10 A3021 RMK A01 T02550102  RH  038%=      5-min Rain = 0
KAD1 161815Z 32002KT 25/10 A3021 RMK A01 T02530103  RH  039%=      5-min Rain = 0
KAD1 161816Z 36002KT 25/11 A3021 RMK A01 T02540106  RH  040%=      5-min Rain = 0
KAD1 161817Z 02003KT 26/11 A3021 RMK A01 T02550109  RH  040%=      5-min Rain = 0
KAD1 161818Z 02005KT 26/11 A3021 RMK A01 T02560113  RH  041%=      5-min Rain = 0
KAD1 161819Z 01007KT 26/11 A3021 RMK A01 T02580110  RH  039%=      5-min Rain = 0
KAD1 161820Z 03006KT 26/11 A3021 RMK A01 T02580109  RH  039%=      5-min Rain = 0
KAD1 161821Z 02004KT 26/11 A3021 RMK A01 T02580106  RH  039%=      5-min Rain = 0
KAD1 161822Z 02003KT 26/11 A3021 RMK A01 T02580106  RH  038%=      5-min Rain = 0
KAD1 161823Z 04002KT 26/10 A3021 RMK A01 T02570104  RH  038%=      5-min Rain = 0
KAD1 161824Z 03004KT 26/11 A3021 RMK A01 T02570106  RH  039%=      5-min Rain = 0
KAD1 161825Z 03006KT 26/11 A3021 RMK A01 T02570109  RH  039%=      5-min Rain = 0
KAD1 161826Z 05007KT 26/11 A3021 RMK A01 T02610107  RH  038%=      5-min Rain = 0
KAD1 161827Z 05004KT 26/10 A3021 RMK A01 T02620102  RH  037%=      5-min Rain = 0
KAD1 161828Z 04006KT 26/10 A3021 RMK A01 T02610102  RH  037%=      5-min Rain = 0
KAD1 161829Z 03006KT 26/10 A3021 RMK A01 T02600095  RH  035%=      5-min Rain = 0
KAD1 161830Z 04006KT 26/10 A3021 RMK A01 T02590096  RH  036%=      5-min Rain = 0
KAD1 161831Z 04004KT 26/10 A3021 RMK A01 T02590099  RH  037%=      5-min Rain = 0
KAD1 161832Z 03003KT 26/11 A3021 RMK A01 T02590106  RH  038%=      5-min Rain = 0
KAD1 161833Z 06003KT 26/10 A3021 RMK A01 T02610103  RH  037%=      5-min Rain = 0
KAD1 161834Z 02003KT 26/10 A3021 RMK A01 T02610099  RH  036%=      5-min Rain = 0
KAD1 161835Z 01003KT 26/10 A3021 RMK A01 T02610099  RH  036%=      5-min Rain = 0
KAD1 161836Z 02005KT 26/10 A3021 RMK A01 T02610103  RH  037%=      5-min Rain = 0
KAD1 161837Z 01004KT 26/10 A3021 RMK A01 T02630104  RH  037%=      5-min Rain = 0
KAD1 161838Z 01002KT 26/10 A3021 RMK A01 T02640097  RH  035%=      5-min Rain = 0
KAD1 161839Z 02002KT 26/10 A3021 RMK A01 T02630101  RH  036%=      5-min Rain = 0
KAD1 161840Z 05003KT 26/10 A3021 RMK A01 T02640100  RH  036%=      5-min Rain = 0
KAD1 161841Z 06005KT 27/10 A302 RMK A01 T02650101  RH  036%=      5-min Rain = 0
KAD1 161842Z 04004KT 27/10 A302 RMK A01 T02670100  RH  035%=      5-min Rain = 0
KAD1 161843Z 04006KT 27/10 A302 RMK A01 T02680099  RH  035%=      5-min Rain = 0
KAD1 161844Z 04006KT 27/11 A302 RMK A01 T02680106  RH  036%=      5-min Rain = 0
KAD1 161845Z 03005KT 27/11 A302 RMK A01 T02690105  RH  036%=      5-min Rain = 0
KAD1 161846Z 04005KT 27/10 A302 RMK A01 T02690101  RH  035%=      5-min Rain = 0
KAD1 161847Z 05003KT 27/10 A302 RMK A01 T02660097  RH  034%=      5-min Rain = 0
KAD1 161848Z 04003KT 27/10 A302 RMK A01 T02650095  RH  034%=      5-min Rain = 0
KAD1 161849Z 04006KT 27/10 A302 RMK A01 T02650099  RH  035%=      5-min Rain = 0
KAD1 161850Z 05007KT 27/10 A302 RMK A01 T02670097  RH  034%=      5-min Rain = 0
KAD1 161851Z 04007KT 27/09 A302 RMK A01 T02680088  RH  032%=      5-min Rain = 0
KAD1 161852Z 03007KT 27/09 A302 RMK A01 T02670085  RH  032%=      5-min Rain = 0
KAD1 161853Z 02006KT 27/09 A302 RMK A01 T02660089  RH  033%=      5-min Rain = 0
KAD1 161854Z 03005KT 27/09 A302 RMK A01 T02660090  RH  033%=      5-min Rain = 0
KAD1 161855Z 03007KT 27/09 A302 RMK A01 T02650088  RH  033%=      5-min Rain = 0
KAD1 161856Z 03005KT 26/09 A302 RMK A01 T02640087  RH  033%=      5-min Rain = 0
KAD1 161857Z 02003KT 26/08 A302 RMK A01 T02630083  RH  032%=      5-min Rain = 0
KAD1 161858Z 34001KT 26/08 A302 RMK A01 T02620081  RH  032%=      5-min Rain = 0
KAD1 161859Z 26002KT 26/08 A302 RMK A01 T02620080  RH  031%=      5-min Rain = 0
KAD1 161900Z 28004KT 26/08 A302 RMK A01 T02630083  RH  032%=      5-min Rain = 0
KAD1 161901Z 28003KT 26/08 A302 RMK A01 T02640079  RH  031%=      5-min Rain = 0
KAD1 161902Z 27002KT 26/08 A302 RMK A01 T02640082  RH  032%=      5-min Rain = 0
KAD1 161903Z 29003KT 27/08 A302 RMK A01 T02660084  RH  032%=      5-min Rain = 0
KAD1 161904Z 34003KT 27/09 A302 RMK A01 T02690088  RH  032%=      5-min Rain = 0
KAD1 161905Z 11003KT 27/09 A302 RMK A01 T02710092  RH  032%=      5-min Rain = 0
KAD1 161906Z 09006KT 27/09 A302 RMK A01 T02720087  RH  031%=      5-min Rain = 0
KAD1 161907Z 09005KT 27/08 A302 RMK A01 T02710084  RH  031%=      5-min Rain = 0
KAD1 161908Z 12006KT 27/09 A302 RMK A01 T02700089  RH  032%=      5-min Rain = 0
KAD1 161909Z 09004KT 27/08 A302 RMK A01 T02720084  RH  031%=      5-min Rain = 0
KAD1 161910Z 03003G8KT 27/09 A302 RMK A01 T02720092  RH  032%=      5-min Rain = 0
KAD1 161911Z 01007KT 27/08 A302 RMK A01 T02740080  RH  029%=      5-min Rain = 0
KAD1 161912Z 04004KT 27/09 A302 RMK A01 T02730087  RH  031%=      5-min Rain = 0
KAD1 161913Z 04007KT 27/09 A302 RMK A01 T02740086  RH  031%=      5-min Rain = 0
KAD1 161914Z 04006KT 27/08 A302 RMK A01 T02730082  RH  030%=      5-min Rain = 0
KAD1 161915Z 06005KT 27/08 A302 RMK A01 T02710084  RH  031%=      5-min Rain = 0
KAD1 161916Z 05005KT 27/08 A302 RMK A01 T02710082  RH  030%=      5-min Rain = 0
KAD1 161917Z 03004KT 27/08 A302 RMK A01 T02710078  RH  030%=      5-min Rain = 0
KAD1 161918Z 05001KT 27/08 A302 RMK A01 T02690076  RH  029%=      5-min Rain = 0
KAD1 161919Z 10000KT 27/07 A302 RMK A01 T02690074  RH  029%=      5-min Rain = 0
KAD1 161920Z 10002KT 27/08 A302 RMK A01 T02700075  RH  029%=      5-min Rain = 0
KAD1 161921Z 09004KT 27/08 A302 RMK A01 T02710075  RH  029%=      5-min Rain = 0
KAD1 161922Z 10001KT 27/08 A302 RMK A01 T02710081  RH  030%=      5-min Rain = 0
KAD1 161923Z 14004KT 27/08 A302 RMK A01 T02720081  RH  030%=      5-min Rain = 0
KAD1 161924Z 12004KT 27/08 A302 RMK A01 T02740079  RH  029%=      5-min Rain = 0
KAD1 161925Z 06003KT 28/08 A302 RMK A01 T02750081  RH  029%=      5-min Rain = 0
KAD1 161926Z 06005KT 27/08 A302 RMK A01 T02740080  RH  029%=      5-min Rain = 0
KAD1 161927Z 05003KT 27/08 A302 RMK A01 T02740079  RH  029%=      5-min Rain = 0
KAD1 161928Z 11001KT 27/07 A302 RMK A01 T02730072  RH  028%=      5-min Rain = 0
KAD1 161929Z 13001KT 27/07 A302 RMK A01 T02710073  RH  028%=      5-min Rain = 0
KAD1 161930Z 21001KT 27/07 A302 RMK A01 T02710072  RH  028%=      5-min Rain = 0
KAD1 161931Z 05002G7KT 27/08 A302 RMK A01 T02720077  RH  029%=      5-min Rain = 0
KAD1 161932Z 05006KT 27/08 A302 RMK A01 T02740077  RH  029%=      5-min Rain = 0
KAD1 161933Z 06007KT 27/08 A302 RMK A01 T02740076  RH  029%=      5-min Rain = 0
KAD1 161934Z 06005KT 27/08 A302 RMK A01 T02730078  RH  029%=      5-min Rain = 0
KAD1 161935Z 08003KT 27/08 A302 RMK A01 T02740080  RH  029%=      5-min Rain = 0
KAD1 161936Z 07004KT 28/08 A302 RMK A01 T02750078  RH  029%=      5-min Rain = 0
KAD1 161937Z 06005KT 28/07 A302 RMK A01 T02750066  RH  026%=      5-min Rain = 0
KAD1 161938Z 08003KT 27/06 A302 RMK A01 T02730063  RH  026%=      5-min Rain = 0
KAD1 161939Z 10002KT 27/06 A302 RMK A01 T02720059  RH  026%=      5-min Rain = 0
KAD1 161940Z 11001KT 27/06 A302 RMK A01 T02730056  RH  025%=      5-min Rain = 0
KAD1 161941Z 04002KT 28/06 A302 RMK A01 T02750060  RH  025%=      5-min Rain = 0
KAD1 161942Z 05002KT 28/06 A302 RMK A01 T02760062  RH  026%=      5-min Rain = 0
KAD1 161943Z 05005KT 28/07 A302 RMK A01 T02770067  RH  027%=      5-min Rain = 0
KAD1 161944Z 03005KT 28/07 A302 RMK A01 T02770065  RH  026%=      5-min Rain = 0
KAD1 161945Z 33005KT 28/06 A302 RMK A01 T02780061  RH  025%=      5-min Rain = 0
KAD1 161946Z 32004KT 28/05 A302 RMK A01 T02770050  RH  023%=      5-min Rain = 0
KAD1 161947Z 36003KT 28/06 A302 RMK A01 T02750055  RH  025%=      5-min Rain = 0
KAD1 161948Z 01006KT 28/06 A302 RMK A01 T02750061  RH  026%=      5-min Rain = 0
KAD1 161949Z 01005KT 28/06 A302 RMK A01 T02750058  RH  025%=      5-min Rain = 0
KAD1 161950Z 04005KT 28/06 A302 RMK A01 T02750059  RH  025%=      5-min Rain = 0
KAD1 161951Z 04008KT 28/06 A3019 RMK A01 T02750063  RH  026%=      5-min Rain = 0
KAD1 161952Z 06010KT 28/07 A3019 RMK A01 T02760068  RH  027%=      5-min Rain = 0
KAD1 161953Z 06008KT 28/06 A3019 RMK A01 T02770063  RH  026%=      5-min Rain = 0
KAD1 161954Z 05005KT 28/07 A302 RMK A01 T02770073  RH  027%=      5-min Rain = 0
KAD1 161955Z 02008KT 28/08 A302 RMK A01 T02800077  RH  028%=      5-min Rain = 0
KAD1 161956Z 03006KT 28/08 A302 RMK A01 T02800075  RH  027%=      5-min Rain = 0
KAD1 161957Z 03005KT 28/07 A302 RMK A01 T02790069  RH  027%=      5-min Rain = 0
KAD1 161958Z 02005KT 28/06 A302 RMK A01 T02760064  RH  026%=      5-min Rain = 0
KAD1 161959Z 04004KT 27/06 A302 RMK A01 T02730064  RH  026%=      5-min Rain = 0
KAD1 162000Z 06004KT 27/07 A302 RMK A01 T02730069  RH  027%=      5-min Rain = 0
KAD1 162001Z 05002KT 27/07 A3019 RMK A01 T02730065  RH  027%=      5-min Rain = 0
KAD1 162002Z 36001KT 27/06 A3019 RMK A01 T02730064  RH  026%=      5-min Rain = 0
KAD1 162003Z 30001KT 27/07 A3019 RMK A01 T02740070  RH  027%=      5-min Rain = 0
KAD1 162004Z 28002KT 28/07 A3019 RMK A01 T02770072  RH  027%=      5-min Rain = 0
KAD1 162005Z 30002KT 28/07 A3019 RMK A01 T02780066  RH  026%=      5-min Rain = 0
KAD1 162006Z 01002KT 28/07 A3019 RMK A01 T02780069  RH  027%=      5-min Rain = 0
KAD1 162007Z 05004KT 28/07 A3019 RMK A01 T02770067  RH  026%=      5-min Rain = 0
KAD1 162008Z 11002KT 28/06 A3019 RMK A01 T02750064  RH  026%=      5-min Rain = 0
KAD1 162009Z 16002KT 27/07 A3019 RMK A01 T02740066  RH  027%=      5-min Rain = 0
KAD1 162010Z 14001KT 28/07 A3019 RMK A01 T02750070  RH  027%=      5-min Rain = 0
KAD1 162011Z 33004KT 28/07 A3019 RMK A01 T02770067  RH  027%=      5-min Rain = 0
KAD1 162012Z 35008KT 28/07 A3019 RMK A01 T02780068  RH  026%=      5-min Rain = 0
KAD1 162013Z 35007KT 28/06 A3019 RMK A01 T02780064  RH  026%=      5-min Rain = 0
KAD1 162014Z 35005KT 28/07 A3019 RMK A01 T02760067  RH  027%=      5-min Rain = 0
KAD1 162015Z 35006KT 28/07 A3019 RMK A01 T02760065  RH  026%=      5-min Rain = 0
KAD1 162016Z 35004KT 28/07 A3019 RMK A01 T02760070  RH  027%=      5-min Rain = 0
KAD1 162017Z 01004KT 28/08 A3019 RMK A01 T02780075  RH  028%=      5-min Rain = 0
KAD1 162018Z 05005KT 28/07 A3019 RMK A01 T02790072  RH  027%=      5-min Rain = 0
KAD1 162019Z 05005KT 28/06 A3019 RMK A01 T02800063  RH  025%=      5-min Rain = 0
KAD1 162020Z 03004KT 28/06 A3019 RMK A01 T02780064  RH  026%=      5-min Rain = 0
KAD1 162021Z 07004KT 28/07 A3019 RMK A01 T02780069  RH  027%=      5-min Rain = 0
KAD1 162022Z 07006KT 28/07 A3019 RMK A01 T02790068  RH  026%=      5-min Rain = 0
KAD1 162023Z 05008KT 28/07 A3019 RMK A01 T02810067  RH  026%=      5-min Rain = 0
KAD1 162024Z 02007KT 28/06 A3019 RMK A01 T02800063  RH  025%=      5-min Rain = 0
KAD1 162025Z 03006KT 28/06 A3019 RMK A01 T02770062  RH  025%=      5-min Rain = 0
KAD1 162026Z 01007KT 28/06 A3019 RMK A01 T02770060  RH  025%=      5-min Rain = 0
KAD1 162027Z 33007KT 28/05 A3019 RMK A01 T02770053  RH  024%=      5-min Rain = 0
KAD1 162028Z 33005KT 28/04 A3019 RMK A01 T02780041  RH  022%=      5-min Rain = 0
KAD1 162029Z 36003KT 28/04 A3019 RMK A01 T02760044  RH  023%=      5-min Rain = 0
KAD1 162030Z 36003KT 28/05 A3019 RMK A01 T02760048  RH  023%=      5-min Rain = 0
KAD1 162031Z 32004KT 28/05 A3019 RMK A01 T02770049  RH  023%=      5-min Rain = 0
KAD1 162032Z 31005KT 28/05 A3019 RMK A01 T02790046  RH  023%=      5-min Rain = 0
KAD1 162033Z 31002KT 28/04 A3019 RMK A01 T02780043  RH  022%=      5-min Rain = 0
KAD1 162034Z 32005KT 28/05 A3019 RMK A01 T02770046  RH  023%=      5-min Rain = 0
KAD1 162035Z 29004KT 28/05 A3019 RMK A01 T02780045  RH  023%=      5-min Rain = 0
KAD1 162036Z 34004KT 28/04 A3019 RMK A01 T02770044  RH  023%=      5-min Rain = 0
KAD1 162037Z 00005KT 28/05 A3019 RMK A01 T02770053  RH  024%=      5-min Rain = 0
KAD1 162038Z 02003KT 28/04 A3019 RMK A01 T02780044  RH  022%=      5-min Rain = 0
KAD1 162039Z 36003KT 28/05 A3019 RMK A01 T02770052  RH  024%=      5-min Rain = 0
KAD1 162040Z 35004KT 28/05 A3019 RMK A01 T02780047  RH  023%=      5-min Rain = 0
KAD1 162041Z 35005KT 28/05 A3019 RMK A01 T02770049  RH  023%=      5-min Rain = 0
KAD1 162042Z 03006KT 28/06 A3019 RMK A01 T02780059  RH  025%=      5-min Rain = 0
KAD1 162043Z 03006KT 28/06 A3019 RMK A01 T02790062  RH  025%=      5-min Rain = 0
KAD1 162044Z 02007KT 28/07 A3019 RMK A01 T02800067  RH  026%=      5-min Rain = 0
KAD1 162045Z 02005KT 28/04 A3019 RMK A01 T02820042  RH  022%=      5-min Rain = 0
KAD1 162046Z 02007KT 28/05 A3019 RMK A01 T02800047  RH  023%=      5-min Rain = 0
KAD1 162047Z 02011KT 28/05 A3019 RMK A01 T02800051  RH  023%=      5-min Rain = 0
KAD1 162048Z 34008KT 28/05 A3019 RMK A01 T02800051  RH  023%=      5-min Rain = 0
KAD1 162049Z 34008KT 28/05 A3019 RMK A01 T02810048  RH  023%=      5-min Rain = 0
KAD1 162050Z 33011KT 28/05 A3019 RMK A01 T02810048  RH  023%=      5-min Rain = 0
KAD1 162051Z 32006KT 28/04 A3019 RMK A01 T02820040  RH  021%=      5-min Rain = 0
KAD1 162052Z 32004KT 28/04 A3019 RMK A01 T02790038  RH  021%=      5-min Rain = 0
KAD1 162053Z 35007KT 28/05 A3019 RMK A01 T02790047  RH  023%=      5-min Rain = 0
KAD1 162054Z 34010KT 28/05 A3019 RMK A01 T02820054  RH  023%=      5-min Rain = 0
KAD1 162055Z 34008KT 28/05 A3019 RMK A01 T02840046  RH  022%=      5-min Rain = 0
KAD1 162056Z 35006KT 28/04 A3019 RMK A01 T02810044  RH  022%=      5-min Rain = 0
KAD1 162057Z 34007KT 28/05 A3019 RMK A01 T02790051  RH  023%=      5-min Rain = 0
KAD1 162058Z 36011KT 28/06 A3019 RMK A01 T02810056  RH  024%=      5-min Rain = 0
KAD1 162059Z 35009KT 28/05 A3019 RMK A01 T02820053  RH  023%=      5-min Rain = 0
KAD1 162100Z 35009KT 28/05 A3019 RMK A01 T02810046  RH  022%=      5-min Rain = 0
KAD1 162101Z 34007KT 28/04 A3019 RMK A01 T02790037  RH  021%=      5-min Rain = 0
KAD1 162102Z 36008KT 28/06 A3019 RMK A01 T02790055  RH  024%=      5-min Rain = 0
KAD1 162103Z 35008KT 28/05 A3019 RMK A01 T02800051  RH  023%=      5-min Rain = 0
KAD1 162104Z 01007KT 28/05 A3019 RMK A01 T02790053  RH  024%=      5-min Rain = 0
KAD1 162105Z 00009KT 28/05 A3019 RMK A01 T02790054  RH  024%=      5-min Rain = 0
KAD1 162106Z 36008KT 28/05 A3019 RMK A01 T02800052  RH  023%=      5-min Rain = 0
KAD1 162107Z 35005KT 28/05 A3019 RMK A01 T02800049  RH  023%=      5-min Rain = 0
KAD1 162108Z 36003KT 28/05 A3019 RMK A01 T02790045  RH  022%=      5-min Rain = 0
KAD1 162109Z 02005KT 28/05 A3019 RMK A01 T02780053  RH  024%=      5-min Rain = 0
KAD1 162110Z 01007KT 28/06 A3019 RMK A01 T02790055  RH  024%=      5-min Rain = 0
KAD1 162111Z 01006KT 28/06 A3019 RMK A01 T02780056  RH  024%=      5-min Rain = 0
KAD1 162112Z 33005KT 28/06 A3019 RMK A01 T02810059  RH  024%=      5-min Rain = 0
KAD1 162113Z 33006KT 28/05 A3019 RMK A01 T02840047  RH  022%=      5-min Rain = 0
KAD1 162114Z 33004KT 28/05 A3019 RMK A01 T02830045  RH  022%=      5-min Rain = 0
KAD1 162115Z 35004KT 28/04 A3019 RMK A01 T02830038  RH  021%=      5-min Rain = 0
KAD1 162116Z 03007KT 28/05 A3019 RMK A01 T02820048  RH  022%=      5-min Rain = 0
KAD1 162117Z 03006KT 28/05 A3019 RMK A01 T02820050  RH  023%=      5-min Rain = 0
KAD1 162118Z 05008KT 28/06 A3019 RMK A01 T02810055  RH  024%=      5-min Rain = 0
KAD1 162119Z 05008KT 28/05 A3019 RMK A01 T02810054  RH  024%=      5-min Rain = 0
KAD1 162120Z 07006KT 28/05 A3019 RMK A01 T02810054  RH  024%=      5-min Rain = 0
KAD1 162121Z 06006KT 28/06 A3019 RMK A01 T02810056  RH  024%=      5-min Rain = 0
KAD1 162122Z 05005KT 28/05 A3019 RMK A01 T02810050  RH  023%=      5-min Rain = 0
KAD1 162123Z 01010G19KT 28/06 A3018 RMK A01 T02800056  RH  024%=      5-min Rain = 0
KAD1 162124Z 33008G13KT 28/06 A3018 RMK A01 T02830057  RH  024%=      5-min Rain = 0
KAD1 162125Z 36008KT 28/05 A3019 RMK A01 T02840047  RH  022%=      5-min Rain = 0
KAD1 162126Z 36009KT 28/05 A3019 RMK A01 T02830047  RH  022%=      5-min Rain = 0
KAD1 162127Z 01008KT 28/05 A3019 RMK A01 T02830052  RH  023%=      5-min Rain = 0
KAD1 162128Z 01008KT 28/06 A3019 RMK A01 T02840056  RH  023%=      5-min Rain = 0
KAD1 162129Z 00010KT 28/05 A3019 RMK A01 T02840052  RH  023%=      5-min Rain = 0
KAD1 162130Z 36006KT 29/06 A3019 RMK A01 T02850056  RH  023%=      5-min Rain = 0
KAD1 162131Z 36009KT 29/06 A3019 RMK A01 T02870057  RH  023%=      5-min Rain = 0
KAD1 162132Z 00008KT 29/05 A3019 RMK A01 T02870052  RH  023%=      5-min Rain = 0
KAD1 162133Z 01009KT 29/06 A3019 RMK A01 T02850058  RH  024%=      5-min Rain = 0
KAD1 162134Z 00009KT 29/06 A3019 RMK A01 T02850060  RH  024%=      5-min Rain = 0
KAD1 162135Z 01009KT 28/06 A3019 RMK A01 T02840057  RH  024%=      5-min Rain = 0
KAD1 162136Z 36006KT 28/06 A3019 RMK A01 T02810057  RH  024%=      5-min Rain = 0
KAD1 162137Z 33006KT 28/05 A3019 RMK A01 T02810054  RH  024%=      5-min Rain = 0
KAD1 162138Z 03007KT 28/06 A3019 RMK A01 T02800059  RH  025%=      5-min Rain = 0
KAD1 162139Z 03007KT 28/06 A3019 RMK A01 T02810059  RH  024%=      5-min Rain = 0
KAD1 162140Z 02009G15KT 28/06 A3018 RMK A01 T02800061  RH  025%=      5-min Rain = 0
KAD1 162141Z 04007KT 28/06 A3019 RMK A01 T02800059  RH  025%=      5-min Rain = 0
KAD1 162142Z 06010KT 28/06 A3018 RMK A01 T02800062  RH  025%=      5-min Rain = 0
KAD1 162143Z 06011KT 28/06 A3018 RMK A01 T02810064  RH  025%=      5-min Rain = 0
KAD1 162144Z 07010KT 28/06 A3018 RMK A01 T02820060  RH  025%=      5-min Rain = 0
KAD1 162145Z 05007KT 28/06 A3018 RMK A01 T02800058  RH  024%=      5-min Rain = 0
KAD1 162146Z 04009KT 28/07 A3018 RMK A01 T02800066  RH  026%=      5-min Rain = 0
KAD1 162147Z 04009KT 28/06 A3018 RMK A01 T02810063  RH  025%=      5-min Rain = 0
KAD1 162148Z 02007KT 28/07 A3018 RMK A01 T02820067  RH  026%=      5-min Rain = 0
KAD1 162149Z 03005KT 28/06 A3018 RMK A01 T02830060  RH  024%=      5-min Rain = 0
KAD1 162150Z 04004KT 28/07 A3018 RMK A01 T02830071  RH  026%=      5-min Rain = 0
KAD1 162151Z 06006KT 28/06 A3018 RMK A01 T02840061  RH  024%=      5-min Rain = 0
KAD1 162152Z 02007KT 28/07 A3018 RMK A01 T02840066  RH  025%=      5-min Rain = 0
KAD1 162153Z 03011KT 28/07 A3018 RMK A01 T02840069  RH  026%=      5-min Rain = 0
KAD1 162154Z 03011KT 28/07 A3018 RMK A01 T02840065  RH  025%=      5-min Rain = 0
KAD1 162155Z 03007KT 28/06 A3018 RMK A01 T02820062  RH  025%=      5-min Rain = 0
KAD1 162156Z 02006KT 28/06 A3018 RMK A01 T02800063  RH  025%=      5-min Rain = 0
KAD1 162157Z 03013KT 28/07 A3018 RMK A01 T02800067  RH  026%=      5-min Rain = 0
KAD1 162158Z 03009KT 28/06 A3018 RMK A01 T02800064  RH  025%=      5-min Rain = 0
KAD1 162159Z 00008KT 28/07 A3018 RMK A01 T02800067  RH  026%=      5-min Rain = 0
KAD1 162200Z 02011KT 28/06 A3018 RMK A01 T02810064  RH  025%=      5-min Rain = 0
KAD1 162201Z 02008KT 28/07 A3018 RMK A01 T02800066  RH  026%=      5-min Rain = 0
KAD1 162202Z 02009KT 28/06 A3018 RMK A01 T02770063  RH  026%=      5-min Rain = 0
KAD1 162203Z 04006KT 27/06 A3018 RMK A01 T02740059  RH  025%=      5-min Rain = 0
KAD1 162204Z 04007KT 27/06 A3018 RMK A01 T02730061  RH  026%=      5-min Rain = 0
KAD1 162205Z 04005KT 27/06 A3018 RMK A01 T02740061  RH  026%=      5-min Rain = 0
KAD1 162206Z 05005KT 28/07 A3018 RMK A01 T02760065  RH  026%=      5-min Rain = 0
KAD1 162207Z 04006KT 28/07 A3018 RMK A01 T02770068  RH  027%=      5-min Rain = 0
KAD1 162208Z 03005KT 28/07 A3018 RMK A01 T02780070  RH  027%=      5-min Rain = 0
KAD1 162209Z 04005KT 28/07 A3018 RMK A01 T02790074  RH  027%=      5-min Rain = 0
KAD1 162210Z 05009G17KT 28/08 A3018 RMK A01 T02820078  RH  028%=      5-min Rain = 0
KAD1 162211Z 05014KT 28/08 A3018 RMK A01 T02820082  RH  028%=      5-min Rain = 0
KAD1 162212Z 06013KT 28/08 A3018 RMK A01 T02810084  RH  029%=      5-min Rain = 0
KAD1 162213Z 06012KT 28/08 A3018 RMK A01 T02810082  RH  029%=      5-min Rain = 0
KAD1 162214Z 05014KT 28/09 A3018 RMK A01 T02810090  RH  030%=      5-min Rain = 0
KAD1 162215Z 06016KT 28/09 A3018 RMK A01 T02820085  RH  029%=      5-min Rain = 0
KAD1 162216Z 04014KT 28/08 A3018 RMK A01 T02790084  RH  029%=      5-min Rain = 0
KAD1 162217Z 04013KT 28/08 A3018 RMK A01 T02750079  RH  029%=      5-min Rain = 0
KAD1 162218Z 04012KT 27/08 A3018 RMK A01 T02730082  RH  030%=      5-min Rain = 0
KAD1 162219Z 04011KT 27/09 A3018 RMK A01 T02720085  RH  031%=      5-min Rain = 0
KAD1 162220Z 04009KT 27/09 A3018 RMK A01 T02700088  RH  032%=      5-min Rain = 0
KAD1 162221Z 03013KT 27/09 A3018 RMK A01 T02700088  RH  032%=      5-min Rain = 0
KAD1 162222Z 03014KT 27/09 A3018 RMK A01 T02700085  RH  031%=      5-min Rain = 0
KAD1 162223Z 03011KT 27/09 A3018 RMK A01 T02690086  RH  032%=      5-min Rain = 0
KAD1 162224Z 03013KT 27/09 A3018 RMK A01 T02680086  RH  032%=      5-min Rain = 0
KAD1 162225Z 03012KT 27/09 A3018 RMK A01 T02680085  RH  031%=      5-min Rain = 0
KAD1 162226Z 03011KT 27/09 A3018 RMK A01 T02690087  RH  032%=      5-min Rain = 0
KAD1 162227Z 04013KT 27/09 A3018 RMK A01 T02720087  RH  031%=      5-min Rain = 0
KAD1 162228Z 02011KT 27/09 A3018 RMK A01 T02730085  RH  031%=      5-min Rain = 0
KAD1 162229Z 03013KT 27/08 A3018 RMK A01 T02730083  RH  030%=      5-min Rain = 0
KAD1 162230Z 04011KT 27/08 A3018 RMK A01 T02740081  RH  030%=      5-min Rain = 0
KAD1 162231Z 04008KT 27/08 A3018 RMK A01 T02740080  RH  029%=      5-min Rain = 0
KAD1 162232Z 04010KT 27/08 A3018 RMK A01 T02740081  RH  030%=      5-min Rain = 0
KAD1 162233Z 03011KT 28/08 A3018 RMK A01 T02750083  RH  030%=      5-min Rain = 0
KAD1 162234Z 02016KT 28/08 A3018 RMK A01 T02750082  RH  030%=      5-min Rain = 0
KAD1 162235Z 04013KT 28/08 A3018 RMK A01 T02750081  RH  029%=      5-min Rain = 0
KAD1 162236Z 05012KT 28/08 A3018 RMK A01 T02750079  RH  029%=      5-min Rain = 0
KAD1 162237Z 04009KT 27/08 A3018 RMK A01 T02740078  RH  029%=      5-min Rain = 0
KAD1 162238Z 04009KT 27/09 A3018 RMK A01 T02740086  RH  031%=      5-min Rain = 0
KAD1 162239Z 04009KT 28/08 A3018 RMK A01 T02760082  RH  029%=      5-min Rain = 0
KAD1 162240Z 03010KT 28/09 A3018 RMK A01 T02760087  RH  030%=      5-min Rain = 0
KAD1 162241Z 03011KT 28/09 A3018 RMK A01 T02770087  RH  030%=      5-min Rain = 0
KAD1 162242Z 03011KT 28/09 A3018 RMK A01 T02780087  RH  030%=      5-min Rain = 0
KAD1 162243Z 04012KT 28/08 A3018 RMK A01 T02760082  RH  029%=      5-min Rain = 0
KAD1 162244Z 03011KT 27/08 A3018 RMK A01 T02740081  RH  030%=      5-min Rain = 0
KAD1 162245Z 02010KT 27/08 A3018 RMK A01 T02730084  RH  030%=      5-min Rain = 0
KAD1 162246Z 02011KT 27/08 A3019 RMK A01 T02730081  RH  030%=      5-min Rain = 0
KAD1 162247Z 03009KT 27/08 A3019 RMK A01 T02720082  RH  030%=      5-min Rain = 0
KAD1 162248Z 06009KT 27/08 A3019 RMK A01 T02720081  RH  030%=      5-min Rain = 0
KAD1 162249Z 06010KT 27/08 A3019 RMK A01 T02720079  RH  030%=      5-min Rain = 0
KAD1 162250Z 06010KT 27/08 A3019 RMK A01 T02720081  RH  030%=      5-min Rain = 0
KAD1 162251Z 06011KT 27/08 A3018 RMK A01 T02720078  RH  029%=      5-min Rain = 0
KAD1 162252Z 06009KT 27/08 A3018 RMK A01 T02710077  RH  029%=      5-min Rain = 0
KAD1 162253Z 06009KT 27/08 A3019 RMK A01 T02710081  RH  030%=      5-min Rain = 0
KAD1 162254Z 04009KT 27/08 A3019 RMK A01 T02720081  RH  030%=      5-min Rain = 0
KAD1 162255Z 03010KT 27/08 A3019 RMK A01 T02730081  RH  030%=      5-min Rain = 0
KAD1 162256Z 03012KT 27/08 A3019 RMK A01 T02730079  RH  029%=      5-min Rain = 0
KAD1 162257Z 03011KT 27/08 A3019 RMK A01 T02730081  RH  030%=      5-min Rain = 0
KAD1 162258Z 04011KT 27/08 A3019 RMK A01 T02730079  RH  029%=      5-min Rain = 0
KAD1 162259Z 04009KT 27/08 A3019 RMK A01 T02730079  RH  030%=      5-min Rain = 0
KAD1 162300Z 02011KT 27/08 A3019 RMK A01 T02720081  RH  030%=      5-min Rain = 0
KAD1 162301Z 02016KT 27/08 A3018 RMK A01 T02720082  RH  030%=      5-min Rain = 0
KAD1 162302Z 02016KT 27/08 A3018 RMK A01 T02710082  RH  030%=      5-min Rain = 0
KAD1 162303Z 04016KT 27/08 A3019 RMK A01 T02700081  RH  030%=      5-min Rain = 0
KAD1 162304Z 05015KT 27/08 A3019 RMK A01 T02700078  RH  030%=      5-min Rain = 0
KAD1 162305Z 05015KT 27/08 A3019 RMK A01 T02700081  RH  030%=      5-min Rain = 0
KAD1 162306Z 04013KT 27/08 A3019 RMK A01 T02680084  RH  031%=      5-min Rain = 0
KAD1 162307Z 05013KT 27/09 A3019 RMK A01 T02670087  RH  032%=      5-min Rain = 0
KAD1 162308Z 03012KT 27/09 A3019 RMK A01 T02660086  RH  032%=      5-min Rain = 0
KAD1 162309Z 04012KT 27/09 A3019 RMK A01 T02660085  RH  032%=      5-min Rain = 0
KAD1 162310Z 03014KT 27/08 A3019 RMK A01 T02670084  RH  032%=      5-min Rain = 0
KAD1 162311Z 03013KT 27/09 A3019 RMK A01 T02670085  RH  032%=      5-min Rain = 0
KAD1 162312Z 03014KT 27/09 A3019 RMK A01 T02670087  RH  032%=      5-min Rain = 0
KAD1 162313Z 02013KT 27/09 A3019 RMK A01 T02670087  RH  032%=      5-min Rain = 0
KAD1 162314Z 01013KT 27/09 A3019 RMK A01 T02660085  RH  032%=      5-min Rain = 0
KAD1 162315Z 00012KT 27/09 A3019 RMK A01 T02650087  RH  032%=      5-min Rain = 0
KAD1 162316Z 01015KT 27/09 A3019 RMK A01 T02650086  RH  032%=      5-min Rain = 0
KAD1 162317Z 02013KT 27/09 A3019 RMK A01 T02650086  RH  032%=      5-min Rain = 0
KAD1 162318Z 03014KT 27/09 A3019 RMK A01 T02660088  RH  033%=      5-min Rain = 0
KAD1 162319Z 05011KT 27/09 A3019 RMK A01 T02670087  RH  032%=      5-min Rain = 0
KAD1 162320Z 05016KT 27/09 A3019 RMK A01 T02670087  RH  032%=      5-min Rain = 0
KAD1 162321Z 04016KT 27/09 A3019 RMK A01 T02680085  RH  032%=      5-min Rain = 0
KAD1 162322Z 04013KT 27/08 A3019 RMK A01 T02670083  RH  031%=      5-min Rain = 0
KAD1 162323Z 03012KT 27/09 A302 RMK A01 T02660086  RH  032%=      5-min Rain = 0
KAD1 162324Z 04014KT 27/09 A302 RMK A01 T02660086  RH  032%=      5-min Rain = 0
KAD1 162325Z 04015KT 27/08 A302 RMK A01 T02660084  RH  032%=      5-min Rain = 0
KAD1 162326Z 04012KT 27/08 A302 RMK A01 T02650082  RH  031%=      5-min Rain = 0
KAD1 162327Z 04012KT 26/09 A302 RMK A01 T02640085  RH  032%=      5-min Rain = 0
KAD1 162328Z 03012KT 26/09 A302 RMK A01 T02640086  RH  032%=      5-min Rain = 0
KAD1 162329Z 02015KT 26/09 A302 RMK A01 T02640085  RH  032%=      5-min Rain = 0
KAD1 162330Z 02014KT 26/08 A302 RMK A01 T02640084  RH  032%=      5-min Rain = 0
KAD1 162331Z 02014KT 26/09 A302 RMK A01 T02640085  RH  032%=      5-min Rain = 0
KAD1 162332Z 02015KT 26/08 A302 RMK A01 T02640084  RH  032%=      5-min Rain = 0
KAD1 162333Z 03015KT 26/08 A302 RMK A01 T02630084  RH  032%=      5-min Rain = 0
KAD1 162334Z 02013KT 26/08 A302 RMK A01 T02620084  RH  032%=      5-min Rain = 0
KAD1 162335Z 02012KT 26/09 A302 RMK A01 T02620087  RH  033%=      5-min Rain = 0
KAD1 162336Z 02012KT 26/09 A302 RMK A01 T02620087  RH  033%=      5-min Rain = 0
KAD1 162337Z 02015KT 26/09 A302 RMK A01 T02620085  RH  033%=      5-min Rain = 0
KAD1 162338Z 02014KT 26/08 A302 RMK A01 T02610082  RH  032%=      5-min Rain = 0
KAD1 162339Z 02015KT 26/08 A302 RMK A01 T02600083  RH  032%=      5-min Rain = 0
KAD1 162340Z 02012KT 26/08 A302 RMK A01 T02600082  RH  032%=      5-min Rain = 0
KAD1 162341Z 02014KT 26/09 A302 RMK A01 T02600085  RH  033%=      5-min Rain = 0
KAD1 162342Z 02014KT 26/08 A302 RMK A01 T02590081  RH  032%=      5-min Rain = 0
KAD1 162343Z 02013KT 26/08 A302 RMK A01 T02590081  RH  032%=      5-min Rain = 0
KAD1 162344Z 03011KT 26/08 A302 RMK A01 T02580083  RH  033%=      5-min Rain = 0
KAD1 162345Z 03011KT 26/09 A302 RMK A01 T02570085  RH  033%=      5-min Rain = 0
KAD1 162346Z 03010KT 26/08 A302 RMK A01 T02560084  RH  034%=      5-min Rain = 0
KAD1 162347Z 03010KT 26/08 A302 RMK A01 T02550084  RH  034%=      5-min Rain = 0
KAD1 162348Z 03008KT 25/09 A302 RMK A01 T02540086  RH  034%=      5-min Rain = 0
KAD1 162349Z 03009KT 25/09 A302 RMK A01 T02540086  RH  034%=      5-min Rain = 0
KAD1 162350Z 03011KT 25/08 A302 RMK A01 T02530084  RH  034%=      5-min Rain = 0
KAD1 162351Z 04010KT 25/08 A302 RMK A01 T02530083  RH  034%=      5-min Rain = 0
KAD1 162352Z 04012KT 25/08 A3021 RMK A01 T02530082  RH  034%=      5-min Rain = 0
KAD1 162353Z 03010KT 25/08 A3021 RMK A01 T02530081  RH  033%=      5-min Rain = 0
KAD1 162354Z 04010KT 25/08 A3021 RMK A01 T02530081  RH  033%=      5-min Rain = 0
KAD1 162355Z 03009KT 25/08 A3021 RMK A01 T02530083  RH  034%=      5-min Rain = 0
KAD1 162356Z 03010KT 25/08 A3021 RMK A01 T02520083  RH  034%=      5-min Rain = 0
KAD1 162357Z 03010KT 25/08 A3021 RMK A01 T02520082  RH  034%=      5-min Rain = 0
KAD1 162358Z 04012KT 25/08 A3021 RMK A01 T02520081  RH  034%=      5-min Rain = 0
KAD1 162359Z 04011KT 25/08 A3021 RMK A01 T02520080  RH  033%=      5-min Rain = 0
KAD1 170000Z 03011KT 25/08 A3021 RMK A01 T02530079  RH  033%=      5-min Rain = 0
KAD1 170001Z 03011KT 25/08 A3021 RMK A01 T02530080  RH  033%=      5-min Rain = 0
KAD1 170002Z 04010KT 25/08 A3021 RMK A01 T02530079  RH  033%=      5-min Rain = 0
KAD1 170003Z 03008KT 25/08 A3021 RMK A01 T02530082  RH  034%=      5-min Rain = 0
KAD1 170004Z 04010KT 25/08 A3021 RMK A01 T02520083  RH  034%=      5-min Rain = 0
KAD1 170005Z 04010KT 25/08 A3021 RMK A01 T02510080  RH  034%=      5-min Rain = 0
KAD1 170006Z 03010KT 25/08 A3021 RMK A01 T02520078  RH  033%=      5-min Rain = 0
KAD1 170007Z 03008KT 25/08 A3021 RMK A01 T02520080  RH  033%=      5-min Rain = 0
KAD1 170008Z 03008KT 25/08 A3021 RMK A01 T02510081  RH  034%=      5-min Rain = 0
KAD1 170009Z 04009KT 25/08 A3021 RMK A01 T02500081  RH  034%=      5-min Rain = 0
KAD1 170010Z 04009KT 25/08 A3021 RMK A01 T02500079  RH  034%=      5-min Rain = 0
KAD1 170011Z 04009KT 25/08 A3021 RMK A01 T02500080  RH  034%=      5-min Rain = 0
KAD1 170012Z 04009KT 25/08 A3021 RMK A01 T02500079  RH  034%=      5-min Rain = 0
KAD1 170013Z 04008KT 25/08 A3021 RMK A01 T02500080  RH  034%=      5-min Rain = 0
KAD1 170014Z 04008KT 25/08 A3021 RMK A01 T02490081  RH  034%=      5-min Rain = 0
KAD1 170015Z 05008KT 25/08 A3021 RMK A01 T02480083  RH  035%=      5-min Rain = 0
KAD1 170016Z 05008KT 25/08 A3021 RMK A01 T02470083  RH  035%=      5-min Rain = 0
KAD1 170017Z 05008KT 25/08 A3021 RMK A01 T02460084  RH  036%=      5-min Rain = 0
KAD1 170018Z 05008KT 25/08 A3021 RMK A01 T02460084  RH  036%=      5-min Rain = 0
KAD1 170019Z 05008KT 25/08 A3021 RMK A01 T02450084  RH  036%=      5-min Rain = 0
KAD1 170020Z 05009KT 24/08 A3021 RMK A01 T02440083  RH  036%=      5-min Rain = 0
KAD1 170021Z 05010KT 24/08 A3021 RMK A01 T02440082  RH  035%=      5-min Rain = 0
KAD1 170022Z 05009KT 25/08 A3021 RMK A01 T02450079  RH  035%=      5-min Rain = 0
KAD1 170023Z 05008KT 25/08 A3021 RMK A01 T02450081  RH  035%=      5-min Rain = 0
KAD1 170024Z 05009KT 24/08 A3021 RMK A01 T02440081  RH  035%=      5-min Rain = 0
KAD1 170025Z 04009KT 24/08 A3021 RMK A01 T02440081  RH  035%=      5-min Rain = 0
KAD1 170026Z 04009KT 24/08 A3021 RMK A01 T02430082  RH  036%=      5-min Rain = 0
KAD1 170027Z 04009KT 24/08 A3021 RMK A01 T02430082  RH  036%=      5-min Rain = 0
KAD1 170028Z 04009KT 24/08 A3021 RMK A01 T02430082  RH  036%=      5-min Rain = 0
KAD1 170029Z 04011KT 24/08 A3021 RMK A01 T02430081  RH  036%=      5-min Rain = 0
KAD1 170030Z 04009KT 24/08 A3021 RMK A01 T02440082  RH  035%=      5-min Rain = 0
KAD1 170031Z 04011KT 24/08 A3021 RMK A01 T02440083  RH  036%=      5-min Rain = 0
KAD1 170032Z 04009KT 24/08 A3021 RMK A01 T02440084  RH  036%=      5-min Rain = 0
KAD1 170033Z 04010KT 24/08 A3022 RMK A01 T02420084  RH  036%=      5-min Rain = 0
KAD1 170034Z 04009KT 24/08 A3022 RMK A01 T02410084  RH  037%=      5-min Rain = 0
KAD1 170035Z 04009KT 24/09 A3022 RMK A01 T02410085  RH  037%=      5-min Rain = 0
KAD1 170036Z 04009KT 24/08 A3022 RMK A01 T02400084  RH  037%=      5-min Rain = 0
KAD1 170037Z 04009KT 24/09 A3022 RMK A01 T02400085  RH  037%=      5-min Rain = 0
KAD1 170038Z 05011KT 24/08 A3022 RMK A01 T02390084  RH  037%=      5-min Rain = 0
KAD1 170039Z 04011KT 24/08 A3022 RMK A01 T02400082  RH  037%=      5-min Rain = 0
KAD1 170040Z 05010KT 24/08 A3022 RMK A01 T02410082  RH  036%=      5-min Rain = 0
KAD1 170041Z 05010KT 24/08 A3022 RMK A01 T02410083  RH  036%=      5-min Rain = 0
KAD1 170042Z 05010KT 24/08 A3022 RMK A01 T02400084  RH  037%=      5-min Rain = 0
KAD1 170043Z 05010KT 24/08 A3022 RMK A01 T02380084  RH  037%=      5-min Rain = 0
KAD1 170044Z 04010KT 24/08 A3022 RMK A01 T02370084  RH  037%=      5-min Rain = 0
KAD1 170045Z 05010KT 24/08 A3022 RMK A01 T02370084  RH  038%=      5-min Rain = 0
KAD1 170046Z 04010KT 24/08 A3022 RMK A01 T02370084  RH  038%=      5-min Rain = 0
KAD1 170047Z 04010KT 24/08 A3022 RMK A01 T02370084  RH  038%=      5-min Rain = 0
KAD1 170048Z 05010KT 24/08 A3022 RMK A01 T02360084  RH  038%=      5-min Rain = 0
KAD1 170049Z 04010KT 24/08 A3022 RMK A01 T02350084  RH  038%=      5-min Rain = 0
KAD1 170050Z 05010KT 23/08 A3022 RMK A01 T02340084  RH  038%=      5-min Rain = 0
KAD1 170051Z 05010KT 23/08 A3022 RMK A01 T02330084  RH  038%=      5-min Rain = 0
KAD1 170052Z 05010KT 23/09 A3022 RMK A01 T02330085  RH  039%=      5-min Rain = 0
KAD1 170053Z 05010KT 23/08 A3022 RMK A01 T02320084  RH  039%=      5-min Rain = 0
KAD1 170054Z 04010KT 23/08 A3022 RMK A01 T02310084  RH  039%=      5-min Rain = 0
KAD1 170055Z 04009KT 23/09 A3022 RMK A01 T02300085  RH  039%=      5-min Rain = 0
KAD1 170056Z 04009KT 23/09 A3022 RMK A01 T02290085  RH  040%=      5-min Rain = 0
KAD1 170057Z 05009KT 23/09 A3022 RMK A01 T02280085  RH  040%=      5-min Rain = 0
KAD1 170058Z 04010KT 23/09 A3022 RMK A01 T02280085  RH  040%=      5-min Rain = 0
KAD1 170059Z 04009KT 23/09 A3022 RMK A01 T02270085  RH  040%=      5-min Rain = 0
KAD1 170100Z 04009KT 23/08 A3022 RMK A01 T02270084  RH  040%=      5-min Rain = 0
KAD1 170101Z 05009KT 23/09 A3022 RMK A01 T02270085  RH  040%=      5-min Rain = 0
KAD1 170102Z 05008KT 23/09 A3022 RMK A01 T02260085  RH  041%=      5-min Rain = 0
KAD1 170103Z 05009KT 22/09 A3022 RMK A01 T02240085  RH  041%=      5-min Rain = 0
KAD1 170104Z 05009KT 22/09 A3022 RMK A01 T02230085  RH  041%=      5-min Rain = 0
KAD1 170105Z 05009KT 22/08 A3022 RMK A01 T02230084  RH  041%=      5-min Rain = 0
KAD1 170106Z 05009KT 22/09 A3022 RMK A01 T02240085  RH  041%=      5-min Rain = 0
KAD1 170107Z 05009KT 22/09 A3022 RMK A01 T02230085  RH  041%=      5-min Rain = 0
KAD1 170108Z 05009KT 22/08 A3022 RMK A01 T02230084  RH  041%=      5-min Rain = 0
KAD1 170109Z 05009KT 22/08 A3022 RMK A01 T02230084  RH  041%=      5-min Rain = 0
KAD1 170110Z 05009KT 22/09 A3022 RMK A01 T02230085  RH  041%=      5-min Rain = 0
KAD1 170111Z 05010KT 22/08 A3022 RMK A01 T02210084  RH  041%=      5-min Rain = 0
KAD1 170112Z 05010KT 22/08 A3022 RMK A01 T02210084  RH  041%=      5-min Rain = 0
KAD1 170113Z 05010KT 22/08 A3022 RMK A01 T02220084  RH  041%=      5-min Rain = 0
KAD1 170114Z 05010KT 22/08 A3023 RMK A01 T02210084  RH  041%=      5-min Rain = 0
KAD1 170115Z 05010KT 22/08 A3023 RMK A01 T02210084  RH  041%=      5-min Rain = 0
KAD1 170116Z 04010KT 22/08 A3023 RMK A01 T02210084  RH  041%=      5-min Rain = 0
KAD1 170117Z 05009KT 22/08 A3023 RMK A01 T02200084  RH  042%=      5-min Rain = 0
KAD1 170118Z 05009KT 22/08 A3023 RMK A01 T02190084  RH  042%=      5-min Rain = 0
KAD1 170119Z 05009KT 22/08 A3023 RMK A01 T02180084  RH  042%=      5-min Rain = 0
KAD1 170120Z 05009KT 22/08 A3023 RMK A01 T02170084  RH  042%=      5-min Rain = 0
KAD1 170121Z 05009KT 22/08 A3023 RMK A01 T02160084  RH  043%=      5-min Rain = 0
KAD1 170122Z 05009KT 22/08 A3023 RMK A01 T02160084  RH  043%=      5-min Rain = 0
KAD1 170123Z 05009KT 22/09 A3023 RMK A01 T02150085  RH  043%=      5-min Rain = 0
KAD1 170124Z 05009KT 21/08 A3023 RMK A01 T02130084  RH  044%=      5-min Rain = 0
KAD1 170125Z 05009KT 21/08 A3023 RMK A01 T02120084  RH  044%=      5-min Rain = 0
KAD1 170126Z 05009KT 21/09 A3023 RMK A01 T02120085  RH  044%=      5-min Rain = 0
KAD1 170127Z 05009KT 21/08 A3023 RMK A01 T02120084  RH  044%=      5-min Rain = 0
KAD1 170128Z 05009KT 21/09 A3023 RMK A01 T02120085  RH  044%=      5-min Rain = 0
KAD1 170129Z 05009KT 21/09 A3023 RMK A01 T02120085  RH  044%=      5-min Rain = 0
KAD1 170130Z 05009KT 21/08 A3023 RMK A01 T02120084  RH  044%=      5-min Rain = 0
KAD1 170131Z 05009KT 21/08 A3023 RMK A01 T02120084  RH  044%=      5-min Rain = 0
KAD1 170132Z 05009KT 21/08 A3023 RMK A01 T02130084  RH  044%=      5-min Rain = 0
KAD1 170133Z 05009KT 21/09 A3023 RMK A01 T02130085  RH  044%=      5-min Rain = 0
KAD1 170134Z 05009KT 21/09 A3023 RMK A01 T02130085  RH  044%=      5-min Rain = 0
KAD1 170135Z 04009KT 21/09 A3023 RMK A01 T02130085  RH  044%=      5-min Rain = 0
KAD1 170136Z 04009KT 21/09 A3023 RMK A01 T02130085  RH  044%=      5-min Rain = 0
KAD1 170137Z 05009KT 21/09 A3024 RMK A01 T02130085  RH  044%=      5-min Rain = 0
KAD1 170138Z 05009KT 21/09 A3024 RMK A01 T02130086  RH  044%=      5-min Rain = 0
KAD1 170139Z 05009KT 21/09 A3024 RMK A01 T02120086  RH  044%=      5-min Rain = 0
KAD1 170140Z 05009KT 21/09 A3024 RMK A01 T02100086  RH  045%=      5-min Rain = 0
KAD1 170141Z 05009KT 21/09 A3024 RMK A01 T02090086  RH  045%=      5-min Rain = 0
KAD1 170142Z 05008KT 21/09 A3024 RMK A01 T02080086  RH  045%=      5-min Rain = 0
KAD1 170143Z 04008KT 21/09 A3024 RMK A01 T02080086  RH  046%=      5-min Rain = 0
KAD1 170144Z 05008KT 21/09 A3024 RMK A01 T02080086  RH  046%=      5-min Rain = 0
KAD1 170145Z 05008KT 21/09 A3024 RMK A01 T02080086  RH  046%=      5-min Rain = 0
KAD1 170146Z 05008KT 21/09 A3024 RMK A01 T02080087  RH  046%=      5-min Rain = 0
KAD1 170147Z 05008KT 21/09 A3024 RMK A01 T02070087  RH  046%=      5-min Rain = 0
KAD1 170148Z 05009KT 21/09 A3024 RMK A01 T02060087  RH  046%=      5-min Rain = 0
KAD1 170149Z 05009KT 21/09 A3024 RMK A01 T02060087  RH  046%=      5-min Rain = 0
KAD1 170150Z 05008KT 21/09 A3024 RMK A01 T02060087  RH  046%=      5-min Rain = 0
KAD1 170151Z 05009KT 21/09 A3024 RMK A01 T02060087  RH  046%=      5-min Rain = 0
KAD1 170152Z 05008KT 21/09 A3024 RMK A01 T02060087  RH  046%=      5-min Rain = 0
KAD1 170153Z 05008KT 21/09 A3024 RMK A01 T02070087  RH  046%=      5-min Rain = 0
KAD1 170154Z 05009KT 21/09 A3024 RMK A01 T02060088  RH  047%=      5-min Rain = 0
KAD1 170155Z 04008KT 21/09 A3025 RMK A01 T02060088  RH  047%=      5-min Rain = 0
KAD1 170156Z 04008KT 21/09 A3025 RMK A01 T02050088  RH  047%=      5-min Rain = 0
KAD1 170157Z 04007KT 20/09 A3025 RMK A01 T02040089  RH  048%=      5-min Rain = 0
KAD1 170158Z 05007KT 20/09 A3025 RMK A01 T02030089  RH  048%=      5-min Rain = 0
KAD1 170159Z 04008KT 20/09 A3025 RMK A01 T02020088  RH  048%=      5-min Rain = 0
KAD1 170200Z 05008KT 20/09 A3025 RMK A01 T02020088  RH  048%=      5-min Rain = 0
KAD1 170201Z 05008KT 20/09 A3025 RMK A01 T02030088  RH  048%=      5-min Rain = 0
KAD1 170202Z 04008KT 20/09 A3025 RMK A01 T02030088  RH  048%=      5-min Rain = 0
KAD1 170203Z 04009KT 20/09 A3025 RMK A01 T02030089  RH  048%=      5-min Rain = 0
KAD1 170204Z 05009KT 20/09 A3025 RMK A01 T02030088  RH  048%=      5-min Rain = 0
KAD1 170205Z 05009KT 20/09 A3025 RMK A01 T02040088  RH  048%=      5-min Rain = 0
KAD1 170206Z 04009KT 20/09 A3025 RMK A01 T02030088  RH  047%=      5-min Rain = 0
KAD1 170207Z 04009KT 20/09 A3025 RMK A01 T02040088  RH  047%=      5-min Rain = 0
KAD1 170208Z 05010KT 20/09 A3025 RMK A01 T02040089  RH  047%=      5-min Rain = 0
KAD1 170209Z 05010KT 20/09 A3025 RMK A01 T02040088  RH  047%=      5-min Rain = 0
KAD1 170210Z 05009KT 20/09 A3025 RMK A01 T02040088  RH  047%=      5-min Rain = 0
KAD1 170211Z 05009KT 21/09 A3025 RMK A01 T02060088  RH  047%=      5-min Rain = 0
KAD1 170212Z 05009KT 21/09 A3025 RMK A01 T02060089  RH  047%=      5-min Rain = 0
KAD1 170213Z 05009KT 21/09 A3026 RMK A01 T02050089  RH  047%=      5-min Rain = 0
KAD1 170214Z 05010KT 20/09 A3026 RMK A01 T02040089  RH  048%=      5-min Rain = 0
KAD1 170215Z 05010KT 20/09 A3026 RMK A01 T02040088  RH  047%=      5-min Rain = 0
KAD1 170216Z 05010KT 21/09 A3026 RMK A01 T02050088  RH  047%=      5-min Rain = 0
KAD1 170217Z 05010KT 21/09 A3026 RMK A01 T02060088  RH  047%=      5-min Rain = 0
KAD1 170218Z 05010KT 21/09 A3026 RMK A01 T02050088  RH  047%=      5-min Rain = 0
KAD1 170219Z 05010KT 21/09 A3026 RMK A01 T02060088  RH  047%=      5-min Rain = 0
KAD1 170220Z 05009KT 21/09 A3026 RMK A01 T02060088  RH  047%=      5-min Rain = 0
KAD1 170221Z 05009KT 21/09 A3026 RMK A01 T02050088  RH  047%=      5-min Rain = 0
KAD1 170222Z 05009KT 20/09 A3026 RMK A01 T02030088  RH  048%=      5-min Rain = 0
KAD1 170223Z 05009KT 20/09 A3026 RMK A01 T02030089  RH  048%=      5-min Rain = 0
KAD1 170224Z 05009KT 20/09 A3026 RMK A01 T02020089  RH  048%=      5-min Rain = 0
KAD1 170225Z 05009KT 20/09 A3026 RMK A01 T02010089  RH  048%=      5-min Rain = 0
KAD1 170226Z 06009KT 20/09 A3026 RMK A01 T02000088  RH  049%=      5-min Rain = 0
KAD1 170227Z 05008KT 20/09 A3026 RMK A01 T02000089  RH  049%=      5-min Rain = 0
KAD1 170228Z 06008KT 20/09 A3026 RMK A01 T01980089  RH  049%=      5-min Rain = 0
KAD1 170229Z 06008KT 20/09 A3026 RMK A01 T01970089  RH  050%=      5-min Rain = 0
KAD1 170230Z 06008KT 20/09 A3026 RMK A01 T01970089  RH  050%=      5-min Rain = 0
KAD1 170231Z 06008KT 20/09 A3027 RMK A01 T01960089  RH  050%=      5-min Rain = 0
KAD1 170232Z 06008KT 20/09 A3027 RMK A01 T01950089  RH  050%=      5-min Rain = 0
KAD1 170233Z 06008KT 20/09 A3027 RMK A01 T01950089  RH  050%=      5-min Rain = 0
KAD1 170234Z 06008KT 19/09 A3027 RMK A01 T01940089  RH  051%=      5-min Rain = 0
KAD1 170235Z 06008KT 19/09 A3027 RMK A01 T01930089  RH  051%=      5-min Rain = 0
KAD1 170236Z 06008KT 19/09 A3027 RMK A01 T01930089  RH  051%=      5-min Rain = 0
KAD1 170237Z 05008KT 19/09 A3027 RMK A01 T01920089  RH  051%=      5-min Rain = 0
KAD1 170238Z 06007KT 19/09 A3027 RMK A01 T01910089  RH  052%=      5-min Rain = 0
KAD1 170239Z 05008KT 19/09 A3027 RMK A01 T01900089  RH  052%=      5-min Rain = 0
KAD1 170240Z 05007KT 19/09 A3027 RMK A01 T01900089  RH  052%=      5-min Rain = 0
KAD1 170241Z 05008KT 19/09 A3027 RMK A01 T01890089  RH  052%=      5-min Rain = 0
KAD1 170242Z 06008KT 19/09 A3027 RMK A01 T01900089  RH  052%=      5-min Rain = 0
KAD1 170243Z 06008KT 19/09 A3027 RMK A01 T01900089  RH  052%=      5-min Rain = 0
KAD1 170244Z 05008KT 19/09 A3027 RMK A01 T01910090  RH  052%=      5-min Rain = 0
KAD1 170245Z 06008KT 19/09 A3027 RMK A01 T01890089  RH  052%=      5-min Rain = 0
KAD1 170246Z 05008KT 19/09 A3027 RMK A01 T01880089  RH  052%=      5-min Rain = 0
KAD1 170247Z 05008KT 19/09 A3027 RMK A01 T01890089  RH  052%=      5-min Rain = 0
KAD1 170248Z 05008KT 19/09 A3027 RMK A01 T01890088  RH  052%=      5-min Rain = 0
KAD1 170249Z 05008KT 19/09 A3027 RMK A01 T01890089  RH  052%=      5-min Rain = 0
KAD1 170250Z 06008KT 19/09 A3027 RMK A01 T01890088  RH  052%=      5-min Rain = 0
KAD1 170251Z 06008KT 19/09 A3027 RMK A01 T01880088  RH  052%=      5-min Rain = 0
KAD1 170252Z 06007KT 19/09 A3027 RMK A01 T01870089  RH  053%=      5-min Rain = 0
KAD1 170253Z 06007KT 19/09 A3027 RMK A01 T01870089  RH  053%=      5-min Rain = 0
KAD1 170254Z 05008KT 19/09 A3028 RMK A01 T01870088  RH  053%=      5-min Rain = 0
KAD1 170255Z 06007KT 19/09 A3028 RMK A01 T01870088  RH  052%=      5-min Rain = 0
KAD1 170256Z 06007KT 19/09 A3028 RMK A01 T01870088  RH  053%=      5-min Rain = 0
KAD1 170257Z 06007KT 19/09 A3028 RMK A01 T01870088  RH  053%=      5-min Rain = 0
KAD1 170258Z 05008KT 19/09 A3028 RMK A01 T01870088  RH  053%=      5-min Rain = 0
KAD1 170259Z 06007KT 19/09 A3028 RMK A01 T01870088  RH  053%=      5-min Rain = 0
KAD1 170300Z 05008KT 19/09 A3028 RMK A01 T01860088  RH  053%=      5-min Rain = 0
KAD1 170301Z 05008KT 19/09 A3028 RMK A01 T01860088  RH  053%=      5-min Rain = 0
KAD1 170302Z 05008KT 19/09 A3028 RMK A01 T01860088  RH  053%=      5-min Rain = 0
KAD1 170303Z 05008KT 19/09 A3028 RMK A01 T01860088  RH  053%=      5-min Rain = 0
KAD1 170304Z 05008KT 19/09 A3028 RMK A01 T01860088  RH  053%=      5-min Rain = 0
KAD1 170305Z 05008KT 19/09 A3028 RMK A01 T01870088  RH  053%=      5-min Rain = 0
KAD1 170306Z 05008KT 19/09 A3028 RMK A01 T01870087  RH  052%=      5-min Rain = 0
KAD1 170307Z 05008KT 19/09 A3028 RMK A01 T01870088  RH  052%=      5-min Rain = 0
KAD1 170308Z 05008KT 19/09 A3028 RMK A01 T01870088  RH  052%=      5-min Rain = 0
KAD1 170309Z 05008KT 19/09 A3028 RMK A01 T01860088  RH  053%=      5-min Rain = 0
KAD1 170310Z 05008KT 19/09 A3028 RMK A01 T01860087  RH  053%=      5-min Rain = 0
KAD1 170311Z 05008KT 19/09 A3028 RMK A01 T01850087  RH  053%=      5-min Rain = 0
KAD1 170312Z 06008KT 19/09 A3028 RMK A01 T01850088  RH  053%=      5-min Rain = 0
KAD1 170313Z 06008KT 18/09 A3028 RMK A01 T01840087  RH  053%=      5-min Rain = 0
KAD1 170314Z 05007KT 19/09 A3028 RMK A01 T01850087  RH  053%=      5-min Rain = 0
KAD1 170315Z 05007KT 19/09 A3028 RMK A01 T01850087  RH  053%=      5-min Rain = 0
KAD1 170316Z 05007KT 18/09 A3028 RMK A01 T01840087  RH  053%=      5-min Rain = 0
KAD1 170317Z 05007KT 18/09 A3028 RMK A01 T01840087  RH  053%=      5-min Rain = 0
KAD1 170318Z 05007KT 18/09 A3028 RMK A01 T01830087  RH  053%=      5-min Rain = 0
KAD1 170319Z 05007KT 18/09 A3028 RMK A01 T01830087  RH  053%=      5-min Rain = 0
KAD1 170320Z 06007KT 18/09 A3028 RMK A01 T01830086  RH  053%=      5-min Rain = 0
KAD1 170321Z 06007KT 18/09 A3028 RMK A01 T01830087  RH  053%=      5-min Rain = 0
KAD1 170322Z 05007KT 18/09 A3028 RMK A01 T01820086  RH  054%=      5-min Rain = 0
KAD1 170323Z 05006KT 18/09 A3028 RMK A01 T01820087  RH  054%=      5-min Rain = 0
KAD1 170324Z 05007KT 18/09 A3028 RMK A01 T01820086  RH  054%=      5-min Rain = 0
KAD1 170325Z 05007KT 18/09 A3028 RMK A01 T01820087  RH  054%=      5-min Rain = 0
KAD1 170326Z 05007KT 18/09 A3028 RMK A01 T01820087  RH  054%=      5-min Rain = 0
KAD1 170327Z 05007KT 18/09 A3028 RMK A01 T01820087  RH  054%=      5-min Rain = 0
KAD1 170328Z 05007KT 18/09 A3028 RMK A01 T01810087  RH  054%=      5-min Rain = 0
KAD1 170329Z 05007KT 18/09 A3028 RMK A01 T01810087  RH  054%=      5-min Rain = 0
KAD1 170330Z 05007KT 18/09 A3028 RMK A01 T01810087  RH  054%=      5-min Rain = 0
KAD1 170331Z 05007KT 18/09 A3028 RMK A01 T01800087  RH  054%=      5-min Rain = 0
KAD1 170332Z 05007KT 18/09 A3028 RMK A01 T01800088  RH  055%=      5-min Rain = 0
KAD1 170333Z 05007KT 18/09 A3028 RMK A01 T01800087  RH  055%=      5-min Rain = 0
KAD1 170334Z 05007KT 18/09 A3028 RMK A01 T01800088  RH  055%=      5-min Rain = 0
KAD1 170335Z 05007KT 18/09 A3028 RMK A01 T01800087  RH  055%=      5-min Rain = 0
KAD1 170336Z 05007KT 18/09 A3028 RMK A01 T01790087  RH  055%=      5-min Rain = 0
KAD1 170337Z 05007KT 18/09 A3028 RMK A01 T01780087  RH  055%=      5-min Rain = 0
KAD1 170338Z 05007KT 18/09 A3028 RMK A01 T01780087  RH  055%=      5-min Rain = 0
KAD1 170339Z 05008KT 18/09 A3028 RMK A01 T01780087  RH  055%=      5-min Rain = 0
KAD1 170340Z 05008KT 18/09 A3028 RMK A01 T01780087  RH  055%=      5-min Rain = 0
KAD1 170341Z 05008KT 18/09 A3028 RMK A01 T01790087  RH  055%=      5-min Rain = 0
KAD1 170342Z 05007KT 18/09 A3028 RMK A01 T01790087  RH  055%=      5-min Rain = 0
KAD1 170343Z 05007KT 18/09 A3028 RMK A01 T01790087  RH  055%=      5-min Rain = 0
KAD1 170344Z 05007KT 18/09 A3028 RMK A01 T01790088  RH  055%=      5-min Rain = 0
KAD1 170345Z 05007KT 18/09 A3028 RMK A01 T01790088  RH  055%=      5-min Rain = 0
KAD1 170346Z 05007KT 18/09 A3028 RMK A01 T01790088  RH  055%=      5-min Rain = 0
KAD1 170347Z 05007KT 18/09 A3028 RMK A01 T01780087  RH  055%=      5-min Rain = 0
KAD1 170348Z 05008KT 18/09 A3028 RMK A01 T01790088  RH  055%=      5-min Rain = 0
KAD1 170349Z 05007KT 18/09 A3028 RMK A01 T01780088  RH  055%=      5-min Rain = 0
KAD1 170350Z 05007KT 18/09 A3028 RMK A01 T01780088  RH  055%=      5-min Rain = 0
KAD1 170351Z 05007KT 18/09 A3028 RMK A01 T01780088  RH  056%=      5-min Rain = 0
KAD1 170352Z 05007KT 18/09 A3028 RMK A01 T01780088  RH  056%=      5-min Rain = 0
KAD1 170353Z 05007KT 18/09 A3028 RMK A01 T01780088  RH  056%=      5-min Rain = 0
KAD1 170354Z 05008KT 18/09 A3028 RMK A01 T01780088  RH  055%=      5-min Rain = 0
KAD1 170355Z 05008KT 18/09 A3028 RMK A01 T01780088  RH  055%=      5-min Rain = 0
KAD1 170356Z 05008KT 18/09 A3028 RMK A01 T01780087  RH  055%=      5-min Rain = 0
KAD1 170357Z 05008KT 18/09 A3028 RMK A01 T01790088  RH  055%=      5-min Rain = 0
KAD1 170358Z 05008KT 18/09 A3028 RMK A01 T01800088  RH  055%=      5-min Rain = 0
KAD1 170359Z 05009KT 18/09 A3028 RMK A01 T01800087  RH  055%=      5-min Rain = 0
KAD1 170400Z 05008KT 18/09 A3028 RMK A01 T01800087  RH  054%=      5-min Rain = 0
KAD1 170401Z 05009KT 18/09 A3029 RMK A01 T01810087  RH  054%=      5-min Rain = 0
KAD1 170402Z 05009KT 18/09 A3029 RMK A01 T01830087  RH  054%=      5-min Rain = 0
KAD1 170403Z 05008KT 18/09 A3029 RMK A01 T01830086  RH  053%=      5-min Rain = 0
KAD1 170404Z 05008KT 18/09 A3029 RMK A01 T01840086  RH  053%=      5-min Rain = 0
KAD1 170405Z 05008KT 18/09 A3029 RMK A01 T01840086  RH  053%=      5-min Rain = 0
KAD1 170406Z 05008KT 18/09 A3029 RMK A01 T01830086  RH  053%=      5-min Rain = 0
KAD1 170407Z 05009KT 18/09 A3029 RMK A01 T01830086  RH  053%=      5-min Rain = 0
KAD1 170408Z 05009KT 18/09 A3029 RMK A01 T01830086  RH  053%=      5-min Rain = 0
KAD1 170409Z 05008KT 18/09 A3029 RMK A01 T01840086  RH  053%=      5-min Rain = 0
KAD1 170410Z 06009KT 18/09 A3029 RMK A01 T01830086  RH  053%=      5-min Rain = 0
KAD1 170411Z 06009KT 18/09 A3029 RMK A01 T01840085  RH  052%=      5-min Rain = 0
KAD1 170412Z 06008KT 19/09 A3029 RMK A01 T01850086  RH  052%=      5-min Rain = 0
KAD1 170413Z 06008KT 19/09 A3029 RMK A01 T01850086  RH  052%=      5-min Rain = 0
KAD1 170414Z 05008KT 18/09 A3029 RMK A01 T01840085  RH  053%=      5-min Rain = 0
KAD1 170415Z 05008KT 18/09 A3029 RMK A01 T01830085  RH  053%=      5-min Rain = 0
KAD1 170416Z 06008KT 18/09 A3029 RMK A01 T01820085  RH  053%=      5-min Rain = 0
KAD1 170417Z 05009KT 18/09 A3029 RMK A01 T01820085  RH  053%=      5-min Rain = 0
KAD1 170418Z 05010KT 18/08 A3029 RMK A01 T01820084  RH  053%=      5-min Rain = 0
KAD1 170419Z 06009KT 18/08 A3029 RMK A01 T01840084  RH  052%=      5-min Rain = 0
KAD1 170420Z 05010KT 19/08 A3029 RMK A01 T01860083  RH  051%=      5-min Rain = 0
KAD1 170421Z 05009KT 19/08 A3029 RMK A01 T01870083  RH  051%=      5-min Rain = 0
KAD1 170422Z 05010KT 19/08 A3029 RMK A01 T01880083  RH  050%=      5-min Rain = 0
KAD1 170423Z 05009KT 19/08 A3029 RMK A01 T01890082  RH  050%=      5-min Rain = 0
KAD1 170424Z 05010KT 19/08 A3029 RMK A01 T01890083  RH  050%=      5-min Rain = 0
KAD1 170425Z 05009KT 19/08 A3029 RMK A01 T01880082  RH  050%=      5-min Rain = 0
KAD1 170426Z 05009KT 19/08 A3029 RMK A01 T01880083  RH  050%=      5-min Rain = 0
KAD1 170427Z 05009KT 19/08 A3029 RMK A01 T01870083  RH  050%=      5-min Rain = 0
KAD1 170428Z 05009KT 19/08 A3029 RMK A01 T01870082  RH  050%=      5-min Rain = 0
KAD1 170429Z 05009KT 19/08 A3029 RMK A01 T01870082  RH  050%=      5-min Rain = 0
KAD1 170430Z 05009KT 19/08 A3029 RMK A01 T01860082  RH  051%=      5-min Rain = 0
KAD1 170431Z 05009KT 19/08 A3029 RMK A01 T01860081  RH  051%=      5-min Rain = 0
KAD1 170432Z 05009KT 19/08 A3029 RMK A01 T01860081  RH  050%=      5-min Rain = 0
KAD1 170433Z 05009KT 19/08 A3029 RMK A01 T01860082  RH  051%=      5-min Rain = 0
KAD1 170434Z 06009KT 19/08 A3029 RMK A01 T01860081  RH  050%=      5-min Rain = 0
KAD1 170435Z 06009KT 19/08 A3029 RMK A01 T01860081  RH  050%=      5-min Rain = 0
KAD1 170436Z 05009KT 19/08 A3029 RMK A01 T01850081  RH  051%=      5-min Rain = 0
KAD1 170437Z 05009KT 19/08 A3029 RMK A01 T01850081  RH  051%=      5-min Rain = 0
KAD1 170438Z 05009KT 19/08 A3029 RMK A01 T01850081  RH  051%=      5-min Rain = 0
KAD1 170439Z 05008KT 18/08 A3029 RMK A01 T01840082  RH  051%=      5-min Rain = 0
KAD1 170440Z 05008KT 18/08 A3029 RMK A01 T01830082  RH  052%=      5-min Rain = 0
KAD1 170441Z 05008KT 18/08 A3029 RMK A01 T01820081  RH  052%=      5-min Rain = 0
KAD1 170442Z 05008KT 18/08 A3029 RMK A01 T01820081  RH  052%=      5-min Rain = 0
KAD1 170443Z 05008KT 18/08 A3029 RMK A01 T01820082  RH  052%=      5-min Rain = 0
KAD1 170444Z 05008KT 18/08 A3029 RMK A01 T01820081  RH  052%=      5-min Rain = 0
KAD1 170445Z 05008KT 18/08 A3029 RMK A01 T01820081  RH  052%=      5-min Rain = 0
KAD1 170446Z 05008KT 18/08 A3029 RMK A01 T01820081  RH  052%=      5-min Rain = 0
KAD1 170447Z 05008KT 18/08 A3029 RMK A01 T01820081  RH  052%=      5-min Rain = 0
KAD1 170448Z 05008KT 18/08 A3029 RMK A01 T01820081  RH  052%=      5-min Rain = 0
KAD1 170449Z 05009KT 18/08 A3029 RMK A01 T01830082  RH  052%=      5-min Rain = 0
KAD1 170450Z 05009KT 18/08 A3029 RMK A01 T01820081  RH  052%=      5-min Rain = 0
KAD1 170451Z 05009KT 18/08 A3029 RMK A01 T01820080  RH  052%=      5-min Rain = 0
KAD1 170452Z 05009KT 18/08 A3029 RMK A01 T01830080  RH  051%=      5-min Rain = 0
KAD1 170453Z 05009KT 18/08 A3029 RMK A01 T01840080  RH  051%=      5-min Rain = 0
KAD1 170454Z 05009KT 19/08 A3029 RMK A01 T01850080  RH  051%=      5-min Rain = 0
KAD1 170455Z 05009KT 18/08 A3029 RMK A01 T01840081  RH  051%=      5-min Rain = 0
KAD1 170456Z 05009KT 18/08 A3029 RMK A01 T01830081  RH  051%=      5-min Rain = 0
KAD1 170457Z 05009KT 18/08 A3029 RMK A01 T01820082  RH  052%=      5-min Rain = 0
KAD1 170458Z 05009KT 18/08 A3029 RMK A01 T01810081  RH  052%=      5-min Rain = 0
KAD1 170459Z 05009KT 18/08 A3029 RMK A01 T01810081  RH  052%=      5-min Rain = 0

Page generated in 0.0786 seconds.